GW2849 Weather Reports


time (UTC)temp
C
wind
direction
speed
KPH
gust
KPH
rain 1hr
cm
rain 24hr
cm
rain mn
cm
humidity
%
barometer
mb
20260507145400 13 166 0.0 6.4 0.00 0.00 0.00 44 1015.1
20260507145300 13 162 3.2 6.4 0.00 0.00 0.00 47 1015.2
20260507145200 13 340 3.2 6.4 0.00 0.00 0.00 49 1015.2
20260507145000 13 328 1.6 6.4 0.00 0.00 0.00 50 1015.2
20260507144901 12 346 3.2 4.8 0.00 0.00 0.00 48 1015.2
20260507144801 12 325 0.0 4.8 0.00 0.00 0.00 49 1015.1
20260507144701 12 323 1.6 4.8 0.00 0.00 0.00 49 1015.2
20260507144503 12 327 3.2 12.9 0.00 0.00 0.00 48 1015.1
20260507144402 12 236 1.6 12.9 0.00 0.00 0.00 47 1015.1
20260507144300 12 74 3.2 12.9 0.00 0.00 0.00 48 1015.2
20260507144201 12 314 1.6 12.9 0.00 0.00 0.00 49 1015.2
20260507144100 12 50 0.0 12.9 0.00 0.00 0.00 50 1015.2
20260507144002 12 46 3.2 12.9 0.00 0.00 0.00 49 1015.2
20260507143901 12 46 1.6 12.9 0.00 0.00 0.00 52 1015.2
20260507143801 12 27 4.8 12.9 0.00 0.00 0.00 51 1015.2
20260507143700 12 34 6.4 12.9 0.00 0.00 0.00 50 1015.2
20260507143600 12 346 3.2 4.8 0.00 0.00 0.00 52 1015.2
20260507143500 12 327 0.0 4.8 0.00 0.00 0.00 52 1015.2
20260507143403 12 335 4.8 4.8 0.00 0.00 0.00 52 1015.2
20260507143302 12 355 3.2 9.7 0.00 0.00 0.00 50 1015.2
20260507143201 12 180 1.6 9.7 0.00 0.00 0.00 50 1015.2
20260507143059 12 180 1.6 9.7 0.00 0.00 0.00 50 1015.2
20260507143000 12 179 1.6 9.7 0.00 0.00 0.00 51 1015.3
20260507142900 12 34 1.6 9.7 0.00 0.00 0.00 52 1015.3
20260507142801 12 5 0.0 9.7 0.00 0.00 0.00 52 1015.3
20260507142659 12 326 0.0 9.7 0.00 0.00 0.00 52 1015.3
20260507142601 12 317 1.6 9.7 0.00 0.00 0.00 53 1015.3
20260507142500 12 351 3.2 9.7 0.00 0.00 0.00 53 1015.3
20260507142359 12 344 8.0 9.7 0.00 0.00 0.00 52 1015.2
20260507142300 12 316 3.2 9.7 0.00 0.00 0.00 51 1015.2
20260507142200 12 348 4.8 9.7 0.00 0.00 0.00 51 1015.3
20260507142101 12 13 6.4 11.3 0.00 0.00 0.00 52 1015.3
20260507142002 12 19 0.0 9.7 0.00 0.00 0.00 52 1015.3
20260507141800 12 355 1.6 17.7 0.00 0.00 0.00 53 1015.3
20260507141659 12 351 1.6 17.7 0.00 0.00 0.00 52 1015.3
20260507141602 12 355 0.0 17.7 0.00 0.00 0.00 51 1015.3
20260507141500 12 355 6.4 17.7 0.00 0.00 0.00 49 1015.2
20260507141400 12 10 1.6 17.7 0.00 0.00 0.00 50 1015.3
20260507141300 12 355 3.2 17.7 0.00 0.00 0.00 50 1015.2
20260507141202 12 360 4.8 17.7 0.00 0.00 0.00 50 1015.3
20260507141100 12 13 11.3 17.7 0.00 0.00 0.00 49 1015.3
20260507141000 12 344 3.2 14.5 0.00 0.00 0.00 48 1015.3
20260507140859 12 355 4.8 14.5 0.00 0.00 0.00 48 1015.4
20260507140759 12 26 0.0 14.5 0.00 0.00 0.00 49 1015.5
20260507140701 12 9 6.4 14.5 0.00 0.00 0.00 48 1015.5
20260507140459 12 14 4.8 14.5 0.00 0.00 0.00 48 1015.5
20260507140359 12 319 1.6 14.5 0.00 0.00 0.00 49 1015.5
20260507140300 12 350 6.4 14.5 0.00 0.00 0.00 49 1015.5
20260507140200 12 328 6.4 8.0 0.00 0.00 0.00 48 1015.5
20260507140100 12 335 1.6 8.0 0.00 0.00 0.00 49 1015.5
20260507140000 12 321 0.0 8.0 0.00 0.00 0.00 50 1015.6
20260507135859 11 327 3.2 8.0 0.00 0.00 0.00 49 1015.5
20260507135759 11 35 0.0 8.0 0.00 0.00 0.00 50 1015.5
20260507135700 11 34 0.0 9.7 0.00 0.00 0.00 50 1015.5
20260507135559 11 10 0.0 9.7 0.00 0.00 0.00 50 1015.4
20260507135500 11 344 0.0 9.7 0.00 0.00 0.00 50 1015.4
20260507135400 11 342 3.2 9.7 0.00 0.00 0.00 51 1015.4
20260507135259 11 314 6.4 9.7 0.00 0.00 0.00 51 1015.3
20260507135200 11 39 4.8 9.7 0.00 0.00 0.00 50 1015.5
20260507135059 11 336 0.0 9.7 0.00 0.00 0.00 51 1015.4
20260507135001 11 344 4.8 9.7 0.00 0.00 0.00 49 1015.4
20260507134859 11 346 1.6 9.7 0.00 0.00 0.00 51 1015.3
20260507134759 11 5 9.7 12.9 0.00 0.00 0.00 51 1015.4
20260507134700 11 344 3.2 16.1 0.00 0.00 0.00 51 1015.3
20260507134358 11 11 3.2 16.1 0.00 0.00 0.00 51 1015.3
20260507134301 11 346 1.6 16.1 0.00 0.00 0.00 52 1015.3
20260507134200 11 319 3.2 16.1 0.00 0.00 0.00 50 1015.3
20260507134059 11 13 1.6 16.1 0.00 0.00 0.00 52 1015.3
20260507133959 11 355 4.8 16.1 0.00 0.00 0.00 51 1015.2
20260507133900 11 10 3.2 16.1 0.00 0.00 0.00 50 1015.3
20260507133800 11 240 0.0 9.7 0.00 0.00 0.00 52 1015.3
20260507133659 11 239 3.2 16.1 0.00 0.00 0.00 53 1015.3
20260507133358 11 360 3.2 16.1 0.00 0.00 0.00 52 1015.3
20260507133259 11 335 1.6 16.1 0.00 0.00 0.00 51 1015.4
20260507133159 11 348 3.2 16.1 0.00 0.00 0.00 50 1015.3
20260507133101 11 16 6.4 16.1 0.00 0.00 0.00 49 1015.3
20260507132901 11 324 3.2 16.1 0.00 0.00 0.00 50 1015.4
20260507132700 11 26 1.6 9.7 0.00 0.00 0.00 55 1015.3
20260507132602 11 319 3.2 9.7 0.00 0.00 0.00 52 1015.3
20260507132502 11 355 0.0 8.0 0.00 0.00 0.00 53 1015.3
20260507132400 11 9 3.2 8.0 0.00 0.00 0.00 53 1015.4
20260507132259 11 355 3.2 8.0 0.00 0.00 0.00 55 1015.5
20260507132201 11 350 0.0 8.0 0.00 0.00 0.00 54 1015.5
20260507132101 11 337 0.0 8.0 0.00 0.00 0.00 53 1015.4
20260507132003 11 337 0.0 8.0 0.00 0.00 0.00 54 1015.4
20260507131900 11 5 1.6 8.0 0.00 0.00 0.00 55 1015.3
20260507131800 11 5 0.0 8.0 0.00 0.00 0.00 54 1015.3
20260507131700 11 360 1.6 8.0 0.00 0.00 0.00 54 1015.3
20260507131600 11 5 1.6 8.0 0.00 0.00 0.00 55 1015.3
20260507131501 11 9 4.8 8.0 0.00 0.00 0.00 55 1015.4
20260507131359 11 18 3.2 8.0 0.00 0.00 0.00 55 1015.3
20260507131301 11 18 3.2 8.0 0.00 0.00 0.00 55 1015.3
20260507131202 11 360 3.2 8.0 0.00 0.00 0.00 55 1015.3
20260507131102 11 342 4.8 8.0 0.00 0.00 0.00 56 1015.3
20260507131000 11 29 0.0 4.8 0.00 0.00 0.00 56 1015.3
20260507130901 11 179 0.0 6.4 0.00 0.00 0.00 58 1015.3
20260507130800 11 176 0.0 9.7 0.00 0.00 0.00 57 1015.2
20260507130700 11 329 0.0 9.7 0.00 0.00 0.00 56 1015.3
20260507130601 11 329 0.0 9.7 0.00 0.00 0.00 56 1015.3
20260507130502 11 329 0.0 9.7 0.00 0.00 0.00 57 1015.3
20260507130403 11 336 0.0 9.7 0.00 0.00 0.00 58 1015.3
20260507130300 11 341 0.0 9.7 0.00 0.00 0.00 57 1015.2
20260507130200 11 341 0.0 9.7 0.00 0.00 0.00 57 1015.2
20260507130101 11 336 0.0 9.7 0.00 0.00 0.00 57 1015.2
20260507130002 10 20 6.4 11.3 0.00 0.00 0.00 58 1015.2
20260507125900 10 5 4.8 6.4 0.00 0.00 0.00 59 1015.2
20260507125801 10 360 3.2 3.2 0.00 0.00 0.00 60 1015.2
20260507125500 10 351 3.2 3.2 0.00 0.00 0.00 60 1015.2
20260507125401 10 350 0.0 3.2 0.00 0.00 0.00 61 1015.2
20260507125301 10 350 3.2 4.8 0.00 0.00 0.00 60 1015.2
20260507125100 10 355 0.0 6.4 0.00 0.00 0.00 61 1015.2
20260507124959 10 355 0.0 6.4 0.00 0.00 0.00 61 1015.2
20260507124900 10 355 3.2 6.4 0.00 0.00 0.00 61 1015.3
20260507124759 10 328 1.6 6.4 0.00 0.00 0.00 62 1015.3
20260507124700 10 328 1.6 6.4 0.00 0.00 0.00 62 1015.2
20260507124559 10 9 0.0 6.4 0.00 0.00 0.00 62 1015.2
20260507124459 10 9 0.0 6.4 0.00 0.00 0.00 62 1015.2
20260507124400 9 9 3.2 6.4 0.00 0.00 0.00 63 1015.2
20260507124159 9 355 1.6 8.0 0.00 0.00 0.00 58 1015.3
20260507124100 9 332 1.6 8.0 0.00 0.00 0.00 59 1015.3
20260507124000 9 355 0.0 8.0 0.00 0.00 0.00 59 1015.3
20260507123900 9 360 3.2 8.0 0.00 0.00 0.00 60 1015.4
20260507123759 9 355 0.0 8.0 0.00 0.00 0.00 60 1015.3
20260507123659 9 355 1.6 8.0 0.00 0.00 0.00 60 1015.4
20260507123559 9 350 1.6 8.0 0.00 0.00 0.00 61 1015.4
20260507123459 9 339 4.8 8.0 0.00 0.00 0.00 60 1015.5
20260507123400 8 348 4.8 8.0 0.00 0.00 0.00 63 1015.4
20260507123201 8 355 0.0 8.0 0.00 0.00 0.00 63 1015.3
20260507123059 8 355 0.0 8.0 0.00 0.00 0.00 63 1015.3
20260507123000 8 350 4.8 8.0 0.00 0.00 0.00 65 1015.3
20260507122859 8 49 1.6 4.8 0.00 0.00 0.00 66 1015.3
20260507122759 8 70 0.0 4.8 0.00 0.00 0.00 66 1015.3
20260507122659 8 334 0.0 4.8 0.00 0.00 0.00 67 1015.3
20260507122600 8 335 0.0 4.8 0.00 0.00 0.00 67 1015.4
20260507122400 8 38 3.2 4.8 0.00 0.00 0.00 69 1015.4
20260507122200 7 16 0.0 4.8 0.00 0.00 0.00 72 1015.4
20260507122100 7 16 0.0 4.8 0.00 0.00 0.00 72 1015.4
20260507121859 7 339 0.0 4.8 0.00 0.00 0.00 75 1015.5
20260507121801 7 339 0.0 4.8 0.00 0.00 0.00 75 1015.5
20260507121559 7 355 0.0 4.8 0.00 0.00 0.00 76 1015.5
20260507121500 7 355 0.0 4.8 0.00 0.00 0.00 77 1015.5
20260507121359 6 355 0.0 4.8 0.00 0.00 0.00 78 1015.4
20260507121259 6 348 0.0 4.8 0.00 0.00 0.00 79 1015.5
20260507121202 6 348 0.0 4.8 0.00 0.00 0.00 80 1015.4
20260507121100 6 348 0.0 4.8 0.00 0.00 0.00 81 1015.5
20260507121000 6 348 0.0 4.8 0.00 0.00 0.00 81 1015.4
20260507120900 6 348 3.2 4.8 0.00 0.00 0.00 82 1015.3
20260507120801 6 343 0.0 3.2 0.00 0.00 0.00 82 1015.3
20260507120658 6 343 0.0 3.2 0.00 0.00 0.00 83 1015.3
20260507120601 6 343 0.0 3.2 0.00 0.00 0.00 84 1015.3
20260507120359 5 343 1.6 3.2 0.00 0.00 0.00 85 1015.4
20260507120300 5 343 0.0 3.2 0.00 0.00 0.00 85 1015.3
20260507120201 5 343 0.0 3.2 0.00 0.00 0.00 86 1015.3
20260507115959 5 331 0.0 1.6 0.00 0.00 0.00 88 1015.3
20260507115858 5 331 0.0 1.6 0.00 0.00 0.00 89 1015.4
20260507115759 5 331 0.0 1.6 0.00 0.00 0.00 89 1015.3
20260507115658 5 331 0.0 1.6 0.00 0.00 0.00 90 1015.3
20260507115559 5 331 0.0 1.6 0.00 0.00 0.00 90 1015.4
20260507115359 5 331 0.0 1.6 0.00 0.00 0.00 91 1015.4
20260507115300 4 331 0.0 1.6 0.00 0.00 0.00 92 1015.5
20260507115159 4 331 0.0 1.6 0.00 0.00 0.00 92 1015.5
20260507115100 4 331 0.0 1.6 0.00 0.00 0.00 92 1015.5
20260507114900 4 331 0.0 1.6 0.00 0.00 0.00 92 1015.4
20260507114800 4 331 0.0 1.6 0.00 0.00 0.00 92 1015.4
20260507114559 3 331 0.0 0.0 0.00 0.00 0.00 92 1015.2
20260507114500 3 331 0.0 0.0 0.00 0.00 0.00 92 1015.3
20260507114359 3 331 0.0 0.0 0.00 0.00 0.00 92 1015.3
20260507114158 3 331 0.0 0.0 0.00 0.00 0.00 91 1015.3
20260507114059 3 331 0.0 0.0 0.00 0.00 0.00 91 1015.3
20260507114001 3 331 0.0 1.6 0.00 0.00 0.00 91 1015.2
20260507113859 3 331 0.0 1.6 0.00 0.00 0.00 91 1015.3
20260507113759 3 331 0.0 1.6 0.00 0.00 0.00 91 1015.3
20260507113659 3 331 0.0 1.6 0.00 0.00 0.00 91 1015.3
20260507113559 3 331 0.0 1.6 0.00 0.00 0.00 91 1015.2
20260507113459 3 331 0.0 1.6 0.00 0.00 0.00 91 1015.2
20260507113359 3 331 0.0 1.6 0.00 0.00 0.00 92 1015.3
20260507113300 3 331 0.0 1.6 0.00 0.00 0.00 91 1015.3
20260507113100 3 331 0.0 1.6 0.00 0.00 0.00 92 1015.3
20260507112959 3 331 0.0 0.0 0.00 0.00 0.00 92 1015.3
20260507112900 3 331 0.0 0.0 0.00 0.00 0.00 92 1015.3
20260507112800 3 331 0.0 0.0 0.00 0.00 0.00 92 1015.3
20260507112659 3 331 0.0 0.0 0.00 0.00 0.00 92 1015.3
20260507112559 3 331 0.0 0.0 0.00 0.00 0.00 92 1015.3
20260507112459 3 331 0.0 0.0 0.00 0.00 0.00 91 1015.2
20260507112259 2 331 0.0 0.0 0.00 0.00 0.00 91 1015.2
20260507112200 2 331 0.0 0.0 0.00 0.00 0.00 91 1015.2
20260507112059 2 331 0.0 0.0 0.00 0.00 0.00 91 1015.2
20260507111900 2 331 0.0 0.0 0.00 0.00 0.00 91 1015.3
20260507111759 2 331 0.0 0.0 0.00 0.00 0.00 91 1015.2
20260507111459 2 331 0.0 0.0 0.00 0.00 0.00 91 1015.2
20260507111401 2 331 0.0 0.0 0.00 0.00 0.00 91 1015.2
20260507111300 2 331 0.0 0.0 0.00 0.00 0.00 91 1015.2
20260507111159 2 331 0.0 0.0 0.00 0.00 0.00 91 1015.2
20260507111100 2 331 0.0 0.0 0.00 0.00 0.00 91 1015.1
20260507110858 2 331 0.0 0.0 0.00 0.00 0.00 91 1015.0
20260507110758 2 331 0.0 0.0 0.00 0.00 0.00 91 1015.0
20260507110659 2 331 0.0 0.0 0.00 0.00 0.00 91 1015.1
20260507110559 2 331 0.0 0.0 0.00 0.00 0.00 90 1015.0
20260507110459 2 331 0.0 0.0 0.00 0.00 0.00 90 1014.9
20260507110400 2 331 0.0 0.0 0.00 0.00 0.00 90 1014.9
20260507110159 2 331 0.0 0.0 0.00 0.00 0.00 90 1014.9
20260507105959 2 331 0.0 0.0 0.00 0.00 0.00 90 1014.9
20260507105900 2 331 0.0 0.0 0.00 0.00 0.00 90 1014.9
20260507105659 2 331 0.0 0.0 0.00 0.00 0.00 90 1014.9
20260507105359 2 331 0.0 0.0 0.00 0.00 0.00 90 1014.8
20260507105258 2 331 0.0 0.0 0.00 0.00 0.00 90 1014.8
20260507105158 2 331 0.0 0.0 0.00 0.00 0.00 90 1014.8
20260507105059 2 331 0.0 0.0 0.00 0.00 0.00 90 1014.7
20260507104858 2 331 0.0 0.0 0.00 0.00 0.00 90 1014.7
20260507104759 2 331 0.0 0.0 0.00 0.00 0.00 90 1014.7
20260507104659 2 331 0.0 0.0 0.00 0.00 0.00 90 1014.7
20260507104559 2 331 0.0 0.0 0.00 0.00 0.00 90 1014.7
20260507104501 2 331 0.0 0.0 0.00 0.00 0.00 90 1014.7
20260507104359 2 331 0.0 0.0 0.00 0.00 0.00 90 1014.7
20260507104159 2 331 0.0 0.0 0.00 0.00 0.00 90 1014.7
20260507104059 2 331 0.0 0.0 0.00 0.00 0.00 90 1014.7
20260507103959 2 331 0.0 0.0 0.00 0.00 0.00 90 1014.7
20260507103859 2 331 0.0 0.0 0.00 0.00 0.00 90 1014.7
20260507103759 2 331 0.0 0.0 0.00 0.00 0.00 90 1014.7
20260507103659 2 331 0.0 0.0 0.00 0.00 0.00 90 1014.7
20260507103558 2 331 0.0 0.0 0.00 0.00 0.00 90 1014.7
20260507103459 2 331 0.0 0.0 0.00 0.00 0.00 90 1014.7
20260507103359 2 331 0.0 0.0 0.00 0.00 0.00 90 1014.7
20260507103159 2 331 0.0 0.0 0.00 0.00 0.00 90 1014.8
20260507103102 2 331 0.0 0.0 0.00 0.00 0.00 90 1014.7
20260507102959 2 331 0.0 0.0 0.00 0.00 0.00 90 1014.7
20260507102859 2 331 0.0 0.0 0.00 0.00 0.00 90 1014.8
20260507102759 2 331 0.0 0.0 0.00 0.00 0.00 90 1014.7
20260507102659 2 331 0.0 0.0 0.00 0.00 0.00 90 1014.7
20260507102558 2 331 0.0 0.0 0.00 0.00 0.00 90 1014.7
20260507102459 2 331 0.0 0.0 0.00 0.00 0.00 90 1014.7
20260507102300 2 331 0.0 0.0 0.00 0.00 0.00 90 1014.7
20260507102101 2 331 0.0 0.0 0.00 0.00 0.00 90 1014.7
20260507101859 2 331 0.0 0.0 0.00 0.00 0.00 90 1014.8
20260507101759 2 331 0.0 0.0 0.00 0.00 0.00 90 1014.7
20260507101600 2 331 0.0 0.0 0.00 0.00 0.00 90 1014.8
20260507101359 2 331 0.0 0.0 0.00 0.00 0.00 90 1014.7
20260507101259 2 331 0.0 0.0 0.00 0.00 0.00 90 1014.8
20260507101158 2 331 0.0 0.0 0.00 0.00 0.00 90 1014.7
20260507101100 2 331 0.0 0.0 0.00 0.00 0.00 90 1014.7
20260507100959 2 331 0.0 0.0 0.00 0.00 0.00 90 1014.7
20260507100900 2 331 0.0 0.0 0.00 0.00 0.00 90 1014.7
20260507100800 2 331 0.0 0.0 0.00 0.00 0.00 90 1014.7
20260507100659 2 331 0.0 0.0 0.00 0.00 0.00 90 1014.7
20260507100601 2 331 0.0 0.0 0.00 0.00 0.00 90 1014.7
20260507100458 2 331 0.0 0.0 0.00 0.00 0.00 90 1014.8
20260507100400 2 331 0.0 0.0 0.00 0.00 0.00 90 1014.7
20260507100158 3 331 0.0 0.0 0.00 0.00 0.00 90 1014.7
20260507095859 3 331 0.0 0.0 0.00 0.00 0.00 90 1014.7
20260507095659 3 331 0.0 0.0 0.00 0.00 0.00 90 1014.7
20260507095559 3 331 0.0 0.0 0.00 0.00 0.00 90 1014.7
20260507095458 3 331 0.0 0.0 0.00 0.00 0.00 90 1014.7
20260507095359 3 331 0.0 0.0 0.00 0.00 0.00 90 1014.8
20260507095300 3 331 0.0 0.0 0.00 0.00 0.00 90 1014.7
20260507095159 3 331 0.0 0.0 0.00 0.00 0.00 90 1014.7
20260507095100 3 331 0.0 0.0 0.00 0.00 0.00 90 1014.7
20260507095000 3 331 0.0 0.0 0.00 0.00 0.00 90 1014.8
20260507094858 3 331 0.0 0.0 0.00 0.00 0.00 90 1014.7
20260507094800 3 331 0.0 0.0 0.00 0.00 0.00 90 1014.7
20260507094700 3 331 0.0 0.0 0.00 0.00 0.00 90 1014.7
20260507094558 3 331 0.0 0.0 0.00 0.00 0.00 90 1014.8
20260507094458 3 331 0.0 0.0 0.00 0.00 0.00 90 1014.8
20260507094359 3 331 0.0 0.0 0.00 0.00 0.00 90 1014.8
20260507094158 3 331 0.0 0.0 0.00 0.00 0.00 90 1014.8
20260507094059 3 331 0.0 0.0 0.00 0.00 0.00 90 1014.8
20260507093959 3 331 0.0 0.0 0.00 0.00 0.00 90 1014.8
20260507093901 3 331 0.0 0.0 0.00 0.00 0.00 90 1014.7
20260507093759 3 331 0.0 0.0 0.00 0.00 0.00 89 1014.8
20260507093700 3 331 0.0 0.0 0.00 0.00 0.00 89 1014.8
20260507093600 3 331 0.0 0.0 0.00 0.00 0.00 89 1014.8
20260507093459 3 331 0.0 0.0 0.00 0.00 0.00 89 1014.8
20260507093259 3 331 0.0 0.0 0.00 0.00 0.00 89 1014.7
20260507093158 3 331 0.0 0.0 0.00 0.00 0.00 89 1014.7
20260507093059 3 331 0.0 0.0 0.00 0.00 0.00 89 1014.8
20260507093000 3 331 0.0 0.0 0.00 0.00 0.00 89 1014.7
20260507092900 3 331 0.0 0.0 0.00 0.00 0.00 89 1014.8
20260507092759 3 331 0.0 0.0 0.00 0.00 0.00 89 1014.8
20260507092659 3 331 0.0 0.0 0.00 0.00 0.00 90 1014.7
20260507092600 3 331 0.0 0.0 0.00 0.00 0.00 90 1014.7
20260507092459 3 331 0.0 0.0 0.00 0.00 0.00 90 1014.7
20260507092400 3 331 0.0 0.0 0.00 0.00 0.00 90 1014.7
20260507092259 3 331 0.0 0.0 0.00 0.00 0.00 89 1014.7
20260507092159 3 331 0.0 0.0 0.00 0.00 0.00 90 1014.7
20260507092059 3 331 0.0 0.0 0.00 0.00 0.00 90 1014.7
20260507091959 3 331 0.0 0.0 0.00 0.00 0.00 90 1014.7
20260507091800 3 331 0.0 0.0 0.00 0.00 0.00 90 1014.6
20260507091559 3 331 0.0 0.0 0.00 0.00 0.00 90 1014.7
20260507091459 3 331 0.0 0.0 0.00 0.00 0.00 90 1014.7
20260507091358 3 331 0.0 0.0 0.00 0.00 0.00 90 1014.7
20260507091259 3 331 0.0 0.0 0.00 0.00 0.00 90 1014.6
20260507091100 3 331 0.0 0.0 0.00 0.00 0.00 89 1014.6
20260507090901 3 331 0.0 0.0 0.00 0.00 0.00 89 1014.6
20260507090759 3 331 0.0 0.0 0.00 0.00 0.00 89 1014.7
20260507090658 3 331 0.0 0.0 0.00 0.00 0.00 89 1014.7
20260507090500 3 331 0.0 0.0 0.00 0.00 0.00 89 1014.6
20260507090359 3 331 0.0 0.0 0.00 0.00 0.00 89 1014.7
20260507090259 3 331 0.0 0.0 0.00 0.00 0.00 89 1014.7
20260507090159 3 331 0.0 0.0 0.00 0.00 0.00 89 1014.7
20260507085759 3 331 0.0 0.0 0.00 0.03 0.00 89 1014.6
20260507085659 3 331 0.0 0.0 0.00 0.03 0.00 89 1014.6
20260507085600 3 331 0.0 0.0 0.00 0.03 0.00 89 1014.7
20260507085458 3 331 0.0 0.0 0.00 0.03 0.00 89 1014.7
20260507085200 3 331 0.0 0.0 0.00 0.03 0.00 90 1014.6
20260507085059 3 331 0.0 0.0 0.00 0.03 0.00 90 1014.6
20260507084959 3 331 0.0 0.0 0.00 0.03 0.00 90 1014.6
20260507084859 3 331 0.0 0.0 0.00 0.03 0.00 90 1014.6
20260507084759 3 331 0.0 0.0 0.00 0.03 0.00 90 1014.5
20260507084658 3 331 0.0 0.0 0.00 0.03 0.00 90 1014.5
20260507084600 3 331 0.0 0.0 0.00 0.03 0.00 90 1014.6
20260507084500 3 331 0.0 0.0 0.00 0.03 0.00 90 1014.5
20260507084259 3 331 0.0 0.0 0.00 0.03 0.00 90 1014.5
20260507084159 3 331 0.0 0.0 0.00 0.03 0.00 90 1014.6
20260507084059 3 331 0.0 0.0 0.00 0.03 0.00 90 1014.6
20260507083959 3 331 0.0 0.0 0.00 0.03 0.00 89 1014.5
20260507083858 3 331 0.0 0.0 0.00 0.03 0.00 89 1014.6
20260507083759 3 331 0.0 0.0 0.00 0.03 0.00 89 1014.5
20260507083703 3 331 0.0 0.0 0.00 0.03 0.00 89 1014.5
20260507083559 3 331 0.0 0.0 0.00 0.03 0.00 89 1014.6
20260507083500 3 331 0.0 0.0 0.00 0.03 0.00 89 1014.5
20260507083400 3 331 0.0 0.0 0.00 0.03 0.00 89 1014.5
20260507083259 3 331 0.0 0.0 0.00 0.03 0.00 89 1014.5
20260507083100 3 331 0.0 0.0 0.00 0.03 0.00 89 1014.6
20260507082959 3 331 0.0 0.0 0.00 0.03 0.00 89 1014.5
20260507082859 3 331 0.0 0.0 0.00 0.03 0.00 89 1014.5
20260507082801 3 331 0.0 0.0 0.00 0.03 0.00 89 1014.6
20260507082658 3 331 0.0 0.0 0.00 0.03 0.00 89 1014.5
20260507082559 3 331 0.0 0.0 0.00 0.03 0.00 89 1014.5
20260507082458 3 331 0.0 0.0 0.00 0.03 0.00 89 1014.5
20260507082359 3 331 0.0 0.0 0.00 0.03 0.00 89 1014.5
20260507082258 3 331 0.0 0.0 0.00 0.03 0.00 89 1014.4
20260507082200 3 331 0.0 0.0 0.00 0.03 0.00 89 1014.5
20260507081959 3 331 0.0 0.0 0.00 0.03 0.00 89 1014.4
20260507081900 3 331 0.0 0.0 0.00 0.03 0.00 89 1014.5
20260507081759 3 331 0.0 0.0 0.00 0.03 0.00 89 1014.5
20260507081558 3 331 0.0 0.0 0.00 0.03 0.00 89 1014.5
20260507081500 3 331 0.0 0.0 0.00 0.03 0.00 89 1014.4
20260507081400 3 331 0.0 0.0 0.00 0.03 0.00 89 1014.4
20260507081301 3 331 0.0 0.0 0.00 0.03 0.00 89 1014.4
20260507081158 3 331 0.0 0.0 0.00 0.03 0.00 89 1014.4
20260507081058 3 331 0.0 0.0 0.00 0.03 0.00 89 1014.4
20260507080900 4 331 0.0 0.0 0.00 0.03 0.00 89 1014.4
20260507080758 4 331 0.0 0.0 0.00 0.03 0.00 89 1014.4
20260507080501 4 331 0.0 0.0 0.00 0.03 0.00 89 1014.3
20260507080358 4 331 0.0 0.0 0.00 0.03 0.00 89 1014.3
20260507080259 4 331 0.0 0.0 0.00 0.03 0.00 89 1014.3
20260507080059 4 331 0.0 0.0 0.00 0.03 0.00 89 1014.3
20260507075759 4 331 0.0 0.0 0.00 0.13 0.00 89 1014.3
20260507075658 4 331 0.0 0.0 0.00 0.13 0.00 89 1014.3
20260507075600 4 331 0.0 0.0 0.00 0.13 0.00 89 1014.3
20260507075358 4 331 0.0 0.0 0.00 0.13 0.00 89 1014.3
20260507075259 4 331 0.0 0.0 0.00 0.13 0.00 89 1014.3
20260507075200 4 331 0.0 0.0 0.00 0.13 0.00 89 1014.2
20260507075101 4 331 0.0 0.0 0.00 0.13 0.00 89 1014.3
20260507075000 4 331 0.0 0.0 0.00 0.13 0.00 89 1014.3
20260507074759 4 331 0.0 0.0 0.00 0.13 0.00 89 1014.4
20260507074659 4 331 0.0 0.0 0.00 0.13 0.00 89 1014.3
20260507074458 4 331 0.0 0.0 0.00 0.13 0.00 89 1014.3
20260507074359 4 331 0.0 0.0 0.00 0.13 0.00 89 1014.3
20260507074158 4 331 0.0 0.0 0.00 0.13 0.00 89 1014.3
20260507074059 4 331 0.0 0.0 0.00 0.13 0.00 89 1014.2
20260507073959 4 331 0.0 0.0 0.00 0.13 0.00 88 1014.3
20260507073800 4 331 0.0 0.0 0.00 0.13 0.00 88 1014.3
20260507073659 4 331 0.0 0.0 0.00 0.13 0.00 88 1014.3
20260507073559 4 331 0.0 0.0 0.00 0.13 0.00 88 1014.3
20260507073500 4 331 0.0 0.0 0.00 0.13 0.00 88 1014.2
20260507073400 4 331 0.0 0.0 0.00 0.13 0.00 88 1014.3
20260507073259 4 331 0.0 0.0 0.00 0.13 0.00 88 1014.3
20260507073201 4 331 0.0 0.0 0.00 0.13 0.00 88 1014.3
20260507073100 4 331 0.0 0.0 0.00 0.13 0.00 88 1014.3
20260507073000 4 331 0.0 0.0 0.00 0.13 0.00 89 1014.3
20260507072801 4 331 0.0 0.0 0.00 0.13 0.00 88 1014.3
20260507072700 4 331 0.0 0.0 0.00 0.13 0.00 88 1014.3
20260507072600 4 331 0.0 0.0 0.00 0.13 0.00 88 1014.3
20260507072500 4 331 0.0 0.0 0.00 0.13 0.00 88 1014.4
20260507072400 5 331 0.0 0.0 0.00 0.13 0.00 88 1014.3
20260507072259 5 331 0.0 0.0 0.00 0.13 0.00 88 1014.4
20260507072200 5 331 0.0 0.0 0.00 0.13 0.00 88 1014.3
20260507072059 5 331 0.0 0.0 0.00 0.13 0.00 88 1014.3
20260507072001 5 331 0.0 0.0 0.00 0.13 0.00 88 1014.3
20260507071803 5 331 0.0 0.0 0.00 0.13 0.00 88 1014.3
20260507071659 5 331 0.0 0.0 0.00 0.13 0.00 88 1014.2
20260507071600 5 331 0.0 0.0 0.00 0.13 0.00 88 1014.3
20260507071500 5 331 0.0 0.0 0.00 0.13 0.00 88 1014.3
20260507071259 5 331 0.0 0.0 0.00 0.13 0.00 88 1014.3
20260507071201 5 331 0.0 0.0 0.00 0.13 0.00 88 1014.3
20260507071059 5 331 0.0 0.0 0.00 0.13 0.00 88 1014.3
20260507071000 5 331 0.0 0.0 0.00 0.13 0.00 88 1014.3
20260507070859 5 331 0.0 0.0 0.00 0.13 0.00 88 1014.3
20260507070800 5 331 0.0 0.0 0.00 0.13 0.00 88 1014.2
20260507070700 5 331 0.0 0.0 0.00 0.13 0.00 88 1014.3
20260507070559 5 331 0.0 0.0 0.00 0.13 0.00 88 1014.2
20260507070359 5 331 0.0 0.0 0.00 0.13 0.00 88 1014.2
20260507070300 5 331 0.0 0.0 0.00 0.13 0.00 88 1014.2
20260507070159 5 331 0.0 0.0 0.00 0.13 0.00 88 1014.2
20260507070059 5 331 0.0 0.0 0.00 0.13 0.00 88 1014.2
20260507070000 5 331 0.0 0.0 0.00 0.46 0.00 88 1014.2
20260507065901 5 331 0.0 0.0 0.00 0.46 0.00 88 1014.2
20260507065759 5 331 0.0 0.0 0.00 0.46 0.00 88 1014.2
20260507065700 5 331 0.0 0.0 0.00 0.46 0.00 88 1014.2
20260507065559 5 331 0.0 0.0 0.00 0.46 0.00 88 1014.2
20260507065459 5 331 0.0 0.0 0.00 0.46 0.00 88 1014.3
20260507065359 5 331 0.0 0.0 0.00 0.46 0.00 88 1014.2
20260507065259 5 331 0.0 0.0 0.00 0.46 0.00 88 1014.2
20260507065200 5 331 0.0 0.0 0.00 0.46 0.00 88 1014.2
20260507065103 5 331 0.0 0.0 0.00 0.46 0.00 88 1014.2
20260507065000 5 331 0.0 0.0 0.00 0.46 0.00 88 1014.3
20260507064859 5 331 0.0 0.0 0.00 0.46 0.00 88 1014.3
20260507064759 5 331 0.0 0.0 0.00 0.46 0.00 88 1014.2
20260507064700 5 331 0.0 0.0 0.00 0.46 0.00 88 1014.3
20260507064559 5 331 0.0 0.0 0.00 0.46 0.00 88 1014.3
20260507064459 5 331 0.0 0.0 0.00 0.46 0.00 88 1014.3
20260507064400 5 331 0.0 0.0 0.00 0.46 0.00 88 1014.3
20260507064258 5 331 0.0 0.0 0.00 0.46 0.00 88 1014.3
20260507064059 5 331 0.0 0.0 0.00 0.46 0.00 88 1014.3
20260507063959 5 331 0.0 0.0 0.00 0.46 0.00 88 1014.3
20260507063900 5 331 0.0 0.0 0.00 0.46 0.00 88 1014.3
20260507063759 5 331 0.0 0.0 0.00 0.46 0.00 88 1014.3
20260507063659 5 331 0.0 0.0 0.00 0.46 0.00 88 1014.3
20260507063459 5 331 0.0 0.0 0.00 0.46 0.00 88 1014.4
20260507063359 5 331 0.0 0.0 0.00 0.46 0.00 88 1014.3
20260507063259 5 331 0.0 0.0 0.00 0.46 0.00 88 1014.4
20260507063158 5 331 0.0 0.0 0.00 0.46 0.00 88 1014.4
20260507063059 5 331 0.0 0.0 0.00 0.46 0.00 87 1014.4
20260507062959 5 331 0.0 0.0 0.00 0.46 0.00 87 1014.4
20260507062900 5 331 0.0 0.0 0.00 0.46 0.00 87 1014.4
20260507062759 5 331 0.0 0.0 0.00 0.46 0.00 87 1014.5
20260507062700 5 331 0.0 0.0 0.00 0.46 0.00 87 1014.4
20260507062558 5 331 0.0 0.0 0.00 0.46 0.00 87 1014.5
20260507062459 5 331 0.0 0.0 0.00 0.46 0.00 87 1014.5
20260507062400 5 331 0.0 0.0 0.00 0.46 0.00 87 1014.5
20260507062259 5 331 0.0 0.0 0.00 0.46 0.00 87 1014.5
20260507062200 5 331 0.0 0.0 0.00 0.46 0.00 87 1014.5
20260507062058 5 331 0.0 0.0 0.00 0.46 0.00 87 1014.5
20260507061958 5 331 0.0 0.0 0.00 0.46 0.00 87 1014.5
20260507061859 5 331 0.0 0.0 0.00 0.46 0.00 87 1014.5
20260507061659 5 331 0.0 0.0 0.00 0.46 0.00 87 1014.5
20260507061259 5 331 0.0 0.0 0.00 0.46 0.00 87 1014.4
20260507061159 5 331 0.0 0.0 0.00 0.46 0.00 87 1014.5
20260507061058 5 331 0.0 0.0 0.00 0.46 0.00 87 1014.4
20260507061001 5 331 0.0 0.0 0.00 0.46 0.00 87 1014.4
20260507060858 5 331 0.0 0.0 0.00 0.46 0.00 87 1014.4
20260507060758 5 331 0.0 0.0 0.00 0.46 0.00 87 1014.3
20260507060659 5 331 0.0 0.0 0.00 0.46 0.00 87 1014.3
20260507060558 5 331 0.0 0.0 0.00 0.46 0.00 87 1014.3
20260507060500 5 331 0.0 0.0 0.00 0.46 0.00 87 1014.3
20260507060159 5 331 0.0 0.0 0.00 0.46 0.00 87 1014.3
20260507060100 5 331 0.0 0.0 0.00 0.46 0.00 87 1014.4
20260507060001 5 331 0.0 0.0 0.00 0.46 0.00 87 1014.4
20260507055900 5 331 0.0 0.0 0.00 0.79 0.00 87 1014.3
20260507055759 5 331 0.0 0.0 0.00 0.79 0.00 87 1014.3
20260507055659 5 331 0.0 0.0 0.00 0.79 0.00 87 1014.3
20260507055559 5 331 0.0 0.0 0.00 0.79 0.00 87 1014.3
20260507055459 5 331 0.0 0.0 0.00 0.79 0.00 87 1014.4
20260507055259 5 331 0.0 0.0 0.00 0.79 0.00 87 1014.4
20260507055200 5 331 0.0 0.0 0.00 0.79 0.00 87 1014.4
20260507055059 5 331 0.0 0.0 0.00 0.79 0.00 87 1014.4
20260507054959 5 331 0.0 0.0 0.00 0.79 0.00 87 1014.4
20260507054859 5 331 0.0 0.0 0.00 0.79 0.00 87 1014.5
20260507054801 5 331 0.0 0.0 0.00 0.79 0.00 87 1014.4
20260507054659 5 331 0.0 0.0 0.00 0.79 0.00 87 1014.5
20260507054601 5 331 0.0 0.0 0.00 0.79 0.00 87 1014.4
20260507054458 5 331 0.0 0.0 0.00 0.79 0.00 87 1014.6
20260507054400 5 331 0.0 0.0 0.00 0.79 0.00 87 1014.5
20260507054259 5 331 0.0 0.0 0.00 0.79 0.00 87 1014.5
20260507054201 5 331 0.0 0.0 0.00 0.79 0.00 87 1014.5
20260507054000 5 331 0.0 0.0 0.00 0.79 0.00 87 1014.5
20260507053758 5 331 0.0 0.0 0.00 0.79 0.00 87 1014.5
20260507053459 5 331 0.0 0.0 0.00 0.79 0.00 86 1014.6
20260507053401 5 331 0.0 0.0 0.00 0.79 0.00 86 1014.5
20260507053300 5 331 0.0 0.0 0.00 0.79 0.00 86 1014.6
20260507053159 5 331 0.0 0.0 0.00 0.79 0.00 86 1014.6
20260507053101 6 331 0.0 0.0 0.00 0.79 0.00 86 1014.6
20260507052958 6 331 0.0 0.0 0.00 0.79 0.00 86 1014.6
20260507052859 6 331 0.0 0.0 0.00 0.79 0.00 86 1014.5
20260507052758 6 331 0.0 0.0 0.00 0.79 0.00 86 1014.5
20260507052659 6 331 0.0 0.0 0.00 0.79 0.00 86 1014.6
20260507052559 6 331 0.0 0.0 0.00 0.79 0.00 86 1014.6
20260507052500 6 331 0.0 0.0 0.00 0.79 0.00 86 1014.6
20260507052358 6 331 0.0 0.0 0.00 0.79 0.00 86 1014.6
20260507052059 6 331 0.0 0.0 0.00 0.79 0.00 86 1014.6
20260507052000 6 331 0.0 0.0 0.00 0.79 0.00 86 1014.6
20260507051858 6 331 0.0 0.0 0.00 0.79 0.00 86 1014.6
20260507051802 6 331 0.0 0.0 0.00 0.79 0.00 86 1014.6
20260507051700 6 331 0.0 0.0 0.00 0.79 0.00 86 1014.6
20260507051501 6 331 0.0 0.0 0.00 0.79 0.00 86 1014.4
20260507051359 6 331 0.0 0.0 0.00 0.79 0.00 86 1014.4
20260507051159 6 331 0.0 0.0 0.00 0.79 0.00 86 1014.4
20260507051100 6 331 0.0 0.0 0.00 0.79 0.00 86 1014.4
20260507050758 6 331 0.0 0.0 0.00 0.79 0.00 85 1014.5
20260507050658 6 331 0.0 0.0 0.00 0.79 0.00 85 1014.4
20260507050600 6 331 0.0 0.0 0.00 0.79 0.00 85 1014.5
20260507050500 6 331 0.0 0.0 0.00 0.79 0.00 85 1014.5
20260507050359 6 331 0.0 0.0 0.00 0.79 0.00 85 1014.5
20260507050259 6 331 0.0 0.0 0.00 0.79 0.00 85 1014.5
20260507050159 6 331 0.0 0.0 0.00 0.79 0.00 85 1014.5
20260507045858 6 331 0.0 0.0 0.00 1.12 0.00 85 1014.6
20260507045759 6 331 0.0 0.0 0.00 1.12 0.00 85 1014.6
20260507045659 6 331 0.0 0.0 0.00 1.12 0.00 85 1014.6
20260507045558 6 331 0.0 0.0 0.00 1.12 0.00 85 1014.6
20260507045500 6 331 0.0 0.0 0.00 1.12 0.00 85 1014.6
20260507045259 6 331 0.0 0.0 0.00 1.12 0.00 85 1014.6
20260507045159 6 331 0.0 0.0 0.00 1.12 0.00 85 1014.6
20260507045100 6 331 0.0 0.0 0.00 1.12 0.00 85 1014.6
20260507044959 6 331 0.0 0.0 0.00 1.12 0.00 85 1014.6
20260507044559 6 331 0.0 0.0 0.00 1.12 0.00 85 1014.7
20260507044500 6 331 0.0 0.0 0.00 1.12 0.00 85 1014.5
20260507044359 6 331 0.0 0.0 0.00 1.12 0.00 85 1014.5
20260507044258 6 331 0.0 0.0 0.00 1.12 0.00 85 1014.6
20260507044159 6 331 0.0 0.0 0.00 1.12 0.00 85 1014.7
20260507044059 6 331 0.0 0.0 0.00 1.12 0.00 85 1014.6
20260507043958 6 331 0.0 0.0 0.00 1.12 0.00 85 1014.7
20260507043859 6 331 0.0 0.0 0.00 1.12 0.00 85 1014.6
20260507043759 6 331 0.0 0.0 0.00 1.12 0.00 84 1014.7
20260507043659 6 331 0.0 0.0 0.00 1.12 0.00 84 1014.7
20260507043559 6 331 0.0 0.0 0.00 1.12 0.00 84 1014.7
20260507043459 6 331 0.0 0.0 0.00 1.12 0.00 84 1014.7
20260507043358 6 331 0.0 0.0 0.00 1.12 0.00 84 1014.7
20260507043259 6 331 0.0 0.0 0.00 1.12 0.00 84 1014.7
20260507043101 6 331 0.0 0.0 0.00 1.12 0.00 84 1014.6
20260507043001 6 331 0.0 0.0 0.00 1.12 0.00 84 1014.6
20260507042702 6 331 0.0 0.0 0.00 1.12 0.00 84 1014.6
20260507042601 6 331 0.0 0.0 0.00 1.12 0.00 84 1014.7
20260507042259 6 331 0.0 0.0 0.00 1.12 0.00 84 1014.6
20260507042200 6 331 0.0 0.0 0.00 1.12 0.00 84 1014.6
20260507042002 7 331 0.0 0.0 0.00 1.12 0.00 84 1014.6
20260507041900 7 331 0.0 0.0 0.00 1.12 0.00 84 1014.6
20260507041759 7 331 0.0 0.0 0.00 1.12 0.00 84 1014.7
20260507041700 7 331 0.0 0.0 0.00 1.12 0.00 84 1014.7
20260507041600 7 331 0.0 0.0 0.00 1.12 0.00 84 1014.6
20260507041401 7 331 0.0 0.0 0.00 1.12 0.00 83 1014.7
20260507041300 7 331 0.0 0.0 0.00 1.12 0.00 83 1014.6
20260507041200 7 331 0.0 0.0 0.00 1.12 0.00 83 1014.6
20260507041000 7 331 0.0 0.0 0.00 1.12 0.00 83 1014.6
20260507040900 7 331 0.0 0.0 0.00 1.12 0.00 83 1014.6
20260507040801 7 331 0.0 0.0 0.00 1.12 0.00 83 1014.6
20260507040700 7 331 0.0 0.0 0.00 1.12 0.00 83 1014.6
20260507040500 7 331 0.0 0.0 0.00 1.12 0.00 83 1014.6
20260507040401 7 331 0.0 0.0 0.00 1.12 0.00 83 1014.7
20260507040300 7 331 0.0 0.0 0.00 1.12 0.00 83 1014.6
20260507040201 7 331 0.0 0.0 0.00 1.12 0.00 83 1014.6
20260507040100 7 331 0.0 0.0 0.00 1.12 0.00 83 1014.6
20260507040007 7 331 0.0 0.0 0.00 1.12 0.00 83 1014.6
20260507035902 7 331 0.0 0.0 0.00 1.14 1.12 83 1014.5
20260507035703 7 331 0.0 0.0 0.00 1.14 1.12 83 1014.6
20260507035602 7 331 0.0 0.0 0.00 1.14 1.12 83 1014.6
20260507035501 7 331 0.0 0.0 0.00 1.14 1.12 83 1014.6
20260507035401 7 331 0.0 0.0 0.00 1.14 1.12 83 1014.6
20260507035306 7 331 0.0 0.0 0.00 1.14 1.12 83 1014.5
20260507035201 7 331 0.0 0.0 0.00 1.14 1.12 83 1014.5
20260507035101 7 331 0.0 0.0 0.00 1.14 1.12 83 1014.5
20260507035003 7 331 0.0 0.0 0.00 1.14 1.12 83 1014.5
20260507034902 7 331 0.0 0.0 0.00 1.14 1.12 83 1014.5
20260507034803 7 331 0.0 0.0 0.00 1.14 1.12 83 1014.5
20260507034703 7 331 0.0 0.0 0.00 1.14 1.12 83 1014.5
20260507034602 7 331 0.0 0.0 0.00 1.14 1.12 83 1014.5
20260507034302 7 331 0.0 0.0 0.00 1.14 1.12 83 1014.5
20260507034203 7 331 0.0 0.0 0.00 1.14 1.12 83 1014.5
20260507034104 7 331 0.0 0.0 0.00 1.14 1.12 83 1014.5
20260507034003 7 331 0.0 0.0 0.00 1.14 1.12 83 1014.5
20260507033902 7 331 0.0 0.0 0.00 1.14 1.12 83 1014.5
20260507033803 7 331 0.0 0.0 0.00 1.14 1.12 83 1014.5
20260507033701 7 331 0.0 0.0 0.00 1.14 1.12 83 1014.6
20260507033502 7 331 0.0 0.0 0.00 1.14 1.12 83 1014.5
20260507033201 7 331 0.0 0.0 0.00 1.14 1.12 83 1014.6
20260507033104 7 331 0.0 0.0 0.00 1.14 1.12 83 1014.6
20260507033003 7 331 0.0 0.0 0.00 1.14 1.12 83 1014.6
20260507032901 7 331 0.0 0.0 0.00 1.14 1.12 83 1014.7
20260507032803 7 331 0.0 0.0 0.00 1.14 1.12 83 1014.7
20260507032701 7 331 0.0 0.0 0.00 1.14 1.12 83 1014.6
20260507032601 7 331 0.0 0.0 0.00 1.14 1.12 83 1014.6
20260507032502 7 331 0.0 0.0 0.00 1.14 1.12 83 1014.6
20260507032404 7 331 0.0 0.0 0.00 1.14 1.12 83 1014.6
20260507032305 7 331 0.0 0.0 0.00 1.14 1.12 83 1014.6
20260507032202 7 331 0.0 0.0 0.00 1.14 1.12 83 1014.6
20260507032102 7 331 0.0 0.0 0.00 1.14 1.12 82 1014.6
20260507032002 7 331 0.0 0.0 0.00 1.14 1.12 82 1014.6
20260507031901 7 331 0.0 0.0 0.00 1.14 1.12 82 1014.6
20260507031801 7 331 0.0 0.0 0.00 1.14 1.12 82 1014.6
20260507031704 7 331 0.0 0.0 0.00 1.14 1.12 82 1014.6
20260507031501 7 331 0.0 0.0 0.00 1.14 1.12 82 1014.6
20260507031401 7 331 0.0 0.0 0.00 1.14 1.12 81 1014.6
20260507031302 7 331 0.0 0.0 0.00 1.14 1.12 81 1014.6
20260507031202 7 331 0.0 0.0 0.00 1.14 1.12 81 1014.6
20260507031104 7 331 0.0 0.0 0.00 1.14 1.12 81 1014.6
20260507031002 7 331 0.0 0.0 0.00 1.14 1.12 81 1014.6
20260507030902 7 331 0.0 0.0 0.00 1.14 1.12 81 1014.6
20260507030803 7 331 0.0 0.0 0.00 1.14 1.12 81 1014.6
20260507030702 7 331 0.0 0.0 0.00 1.14 1.12 81 1014.6
20260507030605 7 331 0.0 0.0 0.00 1.14 1.12 80 1014.6
20260507030501 7 331 0.0 0.0 0.00 1.14 1.12 80 1014.6
20260507030402 7 331 0.0 0.0 0.00 1.14 1.12 80 1014.6
20260507030159 7 331 0.0 0.0 0.00 1.14 1.12 80 1014.6
20260507030059 7 331 0.0 0.0 0.00 1.14 1.12 80 1014.6
20260507030000 7 331 0.0 0.0 0.00 1.19 1.12 79 1014.6
20260507025901 7 331 0.0 0.0 0.00 1.19 1.12 79 1014.6
20260507025801 7 331 0.0 0.0 0.00 1.19 1.12 79 1014.6
20260507025700 7 331 0.0 0.0 0.00 1.19 1.12 79 1014.7
20260507025601 7 331 0.0 0.0 0.00 1.19 1.12 79 1014.6
20260507025400 7 331 0.0 0.0 0.00 1.19 1.12 79 1014.7
20260507025200 7 331 0.0 0.0 0.00 1.19 1.12 79 1014.6
20260507025100 7 331 0.0 0.0 0.00 1.19 1.12 79 1014.7
20260507025001 7 331 0.0 0.0 0.00 1.19 1.12 79 1014.6
20260507024900 8 331 0.0 0.0 0.00 1.19 1.12 79 1014.6
20260507024801 8 331 0.0 0.0 0.00 1.19 1.12 78 1014.6
20260507024701 8 331 0.0 0.0 0.00 1.19 1.12 79 1014.7
20260507024601 8 331 0.0 0.0 0.00 1.19 1.12 78 1014.6
20260507024500 8 331 0.0 0.0 0.00 1.19 1.12 78 1014.6
20260507024301 8 331 0.0 0.0 0.00 1.19 1.12 79 1014.7
20260507024202 8 331 0.0 0.0 0.00 1.19 1.12 78 1014.6
20260507024100 8 331 0.0 0.0 0.00 1.19 1.12 78 1014.6
20260507024001 8 331 0.0 0.0 0.00 1.19 1.12 78 1014.5
20260507023901 8 331 0.0 0.0 0.00 1.19 1.12 78 1014.5
20260507023803 8 331 0.0 0.0 0.00 1.19 1.12 78 1014.6
20260507023600 8 331 0.0 0.0 0.00 1.19 1.12 78 1014.5
20260507023501 8 331 0.0 0.0 0.00 1.19 1.12 78 1014.5
20260507023302 8 331 0.0 0.0 0.00 1.19 1.12 78 1014.6
20260507023201 8 331 0.0 0.0 0.00 1.19 1.12 78 1014.5
20260507023101 8 331 0.0 0.0 0.00 1.19 1.12 78 1014.6
20260507023000 8 331 0.0 0.0 0.00 1.19 1.12 77 1014.5
20260507022802 8 331 0.0 0.0 0.00 1.19 1.12 77 1014.5
20260507022700 8 331 0.0 0.0 0.00 1.19 1.12 77 1014.5
20260507022601 8 331 0.0 0.0 0.00 1.19 1.12 77 1014.5
20260507022500 8 331 0.0 0.0 0.00 1.19 1.12 77 1014.5
20260507022402 8 331 0.0 0.0 0.00 1.19 1.12 77 1014.5
20260507022301 8 331 0.0 0.0 0.00 1.19 1.12 76 1014.4
20260507022201 8 331 0.0 0.0 0.00 1.19 1.12 76 1014.4
20260507022002 8 331 0.0 0.0 0.00 1.19 1.12 76 1014.4
20260507021900 8 331 0.0 0.0 0.00 1.19 1.12 76 1014.3
20260507021800 8 331 0.0 0.0 0.00 1.19 1.12 76 1014.4
20260507021700 8 331 0.0 0.0 0.00 1.19 1.12 76 1014.4
20260507021603 8 331 0.0 0.0 0.00 1.19 1.12 76 1014.4
20260507021401 8 331 0.0 0.0 0.00 1.19 1.12 76 1014.5
20260507021301 8 331 0.0 0.0 0.00 1.19 1.12 76 1014.5
20260507021200 8 331 0.0 0.0 0.00 1.19 1.12 76 1014.4
20260507021101 8 331 0.0 0.0 0.00 1.19 1.12 76 1014.4
20260507021004 8 331 0.0 0.0 0.00 1.19 1.12 76 1014.4
20260507020901 9 331 0.0 0.0 0.00 1.19 1.12 76 1014.4
20260507020702 9 331 0.0 0.0 0.00 1.19 1.12 76 1014.4
20260507020602 9 331 0.0 0.0 0.00 1.19 1.12 75 1014.4
20260507020402 9 331 0.0 0.0 0.00 1.19 1.12 75 1014.4
20260507020301 9 331 0.0 0.0 0.00 1.19 1.12 75 1014.4
20260507020200 9 331 0.0 0.0 0.00 1.19 1.12 75 1014.3
20260507020100 9 331 0.0 0.0 0.00 1.19 1.12 75 1014.4
20260507020004 9 331 0.0 0.0 0.00 1.42 1.12 75 1014.3
20260507015801 9 331 0.0 0.0 0.00 1.42 1.12 75 1014.4
20260507015701 9 331 0.0 0.0 0.00 1.42 1.12 75 1014.3
20260507015601 9 331 0.0 0.0 0.00 1.42 1.12 75 1014.4
20260507015500 9 331 0.0 0.0 0.00 1.42 1.12 75 1014.4
20260507015401 9 331 0.0 0.0 0.00 1.42 1.12 74 1014.3
20260507015300 9 331 0.0 0.0 0.00 1.42 1.12 74 1014.3
20260507015201 10 331 0.0 0.0 0.00 1.42 1.12 74 1014.4
20260507015101 10 331 0.0 0.0 0.00 1.42 1.12 74 1014.4
20260507015001 10 331 0.0 0.0 0.00 1.42 1.12 73 1014.3
20260507014801 10 331 0.0 0.0 0.00 1.42 1.12 73 1014.3
20260507014702 10 331 0.0 0.0 0.00 1.42 1.12 73 1014.3
20260507014600 10 331 0.0 0.0 0.00 1.42 1.12 73 1014.3
20260507014501 10 331 0.0 0.0 0.00 1.42 1.12 73 1014.3
20260507014400 10 331 0.0 0.0 0.00 1.42 1.12 73 1014.3
20260507014301 10 331 0.0 0.0 0.00 1.42 1.12 73 1014.2
20260507014200 10 331 0.0 0.0 0.00 1.42 1.12 73 1014.3
20260507014102 10 331 0.0 0.0 0.00 1.42 1.12 73 1014.3
20260507014001 10 331 0.0 0.0 0.00 1.42 1.12 73 1014.3
20260507013901 10 331 0.0 0.0 0.00 1.42 1.12 73 1014.2
20260507013703 10 331 0.0 0.0 0.00 1.42 1.12 73 1014.3
20260507013602 10 331 0.0 0.0 0.00 1.42 1.12 73 1014.2
20260507013501 10 331 0.0 0.0 0.00 1.42 1.12 73 1014.2
20260507013301 10 331 0.0 0.0 0.00 1.42 1.12 72 1014.2
20260507013159 10 331 0.0 0.0 0.00 1.42 1.12 73 1014.1
20260507013100 10 331 0.0 0.0 0.00 1.42 1.12 72 1014.1
20260507012959 10 331 0.0 0.0 0.00 1.42 1.12 71 1014.1
20260507012859 10 331 0.0 0.0 0.00 1.42 1.12 71 1014.0
20260507012800 10 331 0.0 0.0 0.00 1.42 1.12 71 1014.0
20260507012700 10 331 0.0 0.0 0.00 1.42 1.12 71 1014.1
20260507012600 10 331 0.0 0.0 0.00 1.42 1.12 71 1014.0
20260507012500 10 331 0.0 0.0 0.00 1.42 1.12 70 1014.0
20260507012400 10 331 0.0 0.0 0.00 1.42 1.12 70 1014.0
20260507012306 10 331 0.0 0.0 0.00 1.42 1.12 70 1014.0
20260507012200 11 331 0.0 0.0 0.00 1.42 1.12 69 1013.9
20260507012059 11 331 0.0 0.0 0.00 1.42 1.12 70 1013.9
20260507011959 11 331 0.0 0.0 0.00 1.42 1.12 70 1013.9
20260507011901 11 331 0.0 0.0 0.00 1.42 1.12 69 1013.9
20260507011802 11 331 0.0 0.0 0.00 1.42 1.12 69 1013.9
20260507011700 11 331 0.0 0.0 0.00 1.42 1.12 69 1013.9
20260507011600 11 331 0.0 0.0 0.00 1.42 1.12 68 1013.9
20260507011501 11 331 0.0 0.0 0.00 1.42 1.12 68 1013.9
20260507011300 11 331 0.0 0.0 0.00 1.42 1.12 67 1013.8
20260507011201 11 331 0.0 0.0 0.00 1.42 1.12 67 1013.7
20260507011100 11 331 0.0 0.0 0.00 1.42 1.12 67 1013.8
20260507010959 11 331 0.0 0.0 0.00 1.42 1.12 67 1013.8
20260507010800 11 331 0.0 0.0 0.00 1.42 1.12 67 1013.7
20260507010559 11 331 0.0 0.0 0.00 1.42 1.12 66 1013.7
20260507010501 11 331 0.0 0.0 0.00 1.42 1.12 66 1013.7
20260507010359 11 331 0.0 0.0 0.00 1.42 1.12 66 1013.7
20260507010259 11 331 0.0 0.0 0.00 1.42 1.12 66 1013.8
20260507010200 11 331 0.0 0.0 0.00 1.42 1.12 66 1013.8
20260507010101 11 331 0.0 0.0 0.00 1.42 1.12 66 1013.8
20260507010001 11 331 0.0 0.0 0.00 1.55 1.12 66 1013.7
20260507005701 11 331 0.0 0.0 0.00 1.55 1.12 66 1013.7
20260507005602 11 331 0.0 0.0 0.00 1.55 1.12 66 1013.7
20260507005501 11 331 0.0 0.0 0.00 1.55 1.12 66 1013.8
20260507005305 12 331 0.0 1.6 0.00 1.55 1.12 65 1013.8
20260507005101 12 331 0.0 1.6 0.00 1.55 1.12 65 1013.9
20260507005001 12 331 0.0 1.6 0.00 1.55 1.12 65 1013.8
20260507004902 12 331 0.0 1.6 0.00 1.55 1.12 65 1013.8
20260507004800 12 331 0.0 1.6 0.00 1.55 1.12 64 1013.8
20260507004700 12 331 0.0 1.6 0.00 1.55 1.12 64 1013.9
20260507004601 12 331 0.0 1.6 0.00 1.55 1.12 64 1013.7
20260507004501 12 331 0.0 1.6 0.00 1.55 1.12 64 1013.8
20260507004400 12 331 0.0 1.6 0.00 1.55 1.12 64 1013.8
20260507004301 12 331 0.0 1.6 0.00 1.55 1.12 63 1013.7
20260507004202 12 331 0.0 1.6 0.00 1.55 1.12 64 1013.8
20260507004000 12 331 0.0 3.2 0.00 1.55 1.12 64 1013.7
20260507003900 12 331 0.0 3.2 0.00 1.55 1.12 64 1013.8
20260507003603 12 331 0.0 3.2 0.00 1.55 1.12 64 1013.8
20260507003502 12 331 0.0 3.2 0.00 1.55 1.12 63 1013.8
20260507003401 12 331 0.0 3.2 0.00 1.55 1.12 63 1013.7
20260507003301 12 331 0.0 3.2 0.00 1.55 1.12 63 1013.7
20260507003200 12 330 0.0 0.0 0.00 1.55 1.12 63 1013.7
20260507003101 12 330 0.0 1.6 0.00 1.55 1.12 63 1013.8
20260507002902 12 330 0.0 1.6 0.00 1.55 1.12 63 1013.9
20260507002801 12 330 0.0 1.6 0.00 1.55 1.12 62 1013.8
20260507002702 12 330 0.0 4.8 0.00 1.55 1.12 63 1013.8
20260507002600 12 330 0.0 4.8 0.00 1.55 1.12 62 1013.7
20260507002501 12 330 0.0 4.8 0.00 1.55 1.12 62 1013.7
20260507002401 12 330 0.0 6.4 0.00 1.55 1.12 62 1013.7
20260507002305 12 330 0.0 6.4 0.00 1.55 1.12 61 1013.7
20260507002201 12 330 0.0 6.4 0.00 1.55 1.12 62 1013.7
20260507002100 12 330 0.0 6.4 0.00 1.55 1.12 61 1013.6
20260507002000 12 330 1.6 6.4 0.00 1.55 1.12 61 1013.7
20260507001801 12 5 1.6 6.4 0.00 1.55 1.12 61 1013.6
20260507001701 12 5 0.0 6.4 0.00 1.55 1.12 60 1013.6
20260507001602 13 14 0.0 6.4 0.00 1.55 1.12 60 1013.6
20260507001500 13 26 4.8 4.8 0.00 1.55 1.12 60 1013.6
20260507001402 13 355 0.0 4.8 0.00 1.55 1.12 60 1013.6
20260507001300 13 355 0.0 4.8 0.00 1.55 1.12 60 1013.5
20260507001201 13 355 0.0 4.8 0.00 1.55 1.12 59 1013.5
20260507001100 13 355 0.0 4.8 0.00 1.55 1.12 60 1013.5
20260507001001 13 355 0.0 4.8 0.00 1.55 1.12 60 1013.5
20260507000902 13 349 0.0 1.6 0.00 1.55 1.12 59 1013.5
20260507000801 13 349 0.0 3.2 0.00 1.55 1.12 60 1013.6
20260507000700 13 349 0.0 9.7 0.00 1.55 1.12 59 1013.6
20260507000600 13 349 0.0 9.7 0.00 1.55 1.12 59 1013.6
20260507000500 13 349 0.0 9.7 0.00 1.55 1.12 60 1013.6
20260507000400 13 349 0.0 9.7 0.00 1.55 1.12 60 1013.5
20260507000302 13 349 0.0 9.7 0.00 1.55 1.12 59 1013.5
20260507000200 13 347 0.0 9.7 0.00 1.55 1.12 59 1013.5
20260507000101 13 347 0.0 9.7 0.00 1.55 1.12 59 1013.5
20260507000000 13 347 0.0 9.7 0.00 1.60 1.12 58 1013.6
20260506235902 13 347 0.0 9.7 0.00 1.60 1.12 58 1013.6
20260506235801 13 5 6.4 6.4 0.00 1.60 1.12 58 1013.6
20260506235601 13 347 0.0 6.4 0.00 1.60 1.12 57 1013.5
20260506235501 13 347 0.0 6.4 0.00 1.60 1.12 57 1013.5
20260506235400 13 355 0.0 6.4 0.00 1.60 1.12 58 1013.5
20260506235301 13 355 0.0 6.4 0.00 1.60 1.12 58 1013.5
20260506235101 13 355 0.0 8.0 0.00 1.60 1.12 57 1013.4
20260506235000 13 355 0.0 8.0 0.00 1.60 1.12 57 1013.4
20260506234900 13 355 0.0 8.0 0.00 1.60 1.12 58 1013.3
20260506234600 13 5 1.6 8.0 0.00 1.60 1.12 57 1013.3
20260506234502 13 5 4.8 8.0 0.00 1.60 1.12 56 1013.2
20260506234401 13 21 1.6 8.0 0.00 1.60 1.12 56 1013.1
20260506234301 13 335 4.8 8.0 0.00 1.60 1.12 58 1013.1
20260506234201 13 355 3.2 3.2 0.00 1.60 1.12 58 1013.1
20260506234101 13 355 1.6 3.2 0.00 1.60 1.12 57 1013.0
20260506234000 13 355 0.0 3.2 0.00 1.60 1.12 58 1013.1
20260506233901 13 355 1.6 3.2 0.00 1.60 1.12 58 1013.1
20260506233800 13 355 0.0 3.2 0.00 1.60 1.12 59 1013.1
20260506233701 13 355 0.0 3.2 0.00 1.60 1.12 59 1013.1
20260506233501 13 355 1.6 3.2 0.00 1.60 1.12 59 1013.1
20260506233401 13 355 0.0 3.2 0.00 1.60 1.12 59 1013.2
20260506233301 13 355 0.0 3.2 0.00 1.60 1.12 58 1013.2
20260506233202 13 355 0.0 3.2 0.00 1.60 1.12 58 1013.2
20260506233102 13 355 0.0 4.8 0.00 1.60 1.12 58 1013.2
20260506233000 13 360 1.6 9.7 0.00 1.60 1.12 57 1013.2
20260506232901 13 342 1.6 9.7 0.00 1.60 1.12 57 1013.2
20260506232802 13 343 0.0 9.7 0.00 1.60 1.12 58 1013.2
20260506232701 13 343 0.0 9.7 0.00 1.60 1.12 57 1013.3
20260506232602 13 343 0.0 9.7 0.00 1.60 1.12 56 1013.2
20260506232501 13 343 1.6 9.7 0.00 1.60 1.12 56 1013.2
20260506232401 13 343 0.0 9.7 0.00 1.60 1.12 56 1013.3
20260506232305 13 343 3.2 9.7 0.00 1.60 1.12 56 1013.3
20260506232201 13 350 0.0 9.7 0.00 1.60 1.12 56 1013.2
20260506232100 13 332 8.0 8.0 0.00 1.60 1.12 56 1013.2
20260506232000 13 11 0.0 4.8 0.00 1.60 1.12 57 1013.2
20260506231802 14 5 0.0 19.3 0.00 1.60 1.12 56 1013.2
20260506231601 14 12 0.0 19.3 0.00 1.60 1.12 56 1013.2
20260506231402 14 26 0.0 19.3 0.00 1.60 1.12 55 1013.1
20260506231300 14 5 3.2 19.3 0.00 1.60 1.12 56 1013.0
20260506231201 14 5 0.0 19.3 0.00 1.60 1.12 55 1012.9
20260506231102 14 5 1.6 19.3 0.00 1.60 1.12 55 1012.8
20260506231002 14 36 11.3 19.3 0.00 1.60 1.12 55 1012.8
20260506230902 14 9 0.0 3.2 0.00 1.60 1.12 56 1012.8
20260506230802 14 30 0.0 3.2 0.00 1.60 1.12 55 1012.8
20260506230600 15 152 0.0 6.4 0.00 1.60 1.12 55 1012.7
20260506230501 15 349 0.0 9.7 0.00 1.60 1.12 56 1012.7
20260506230401 15 349 0.0 9.7 0.00 1.60 1.12 55 1012.6
20260506230301 15 340 0.0 9.7 0.00 1.60 1.12 55 1012.6
20260506230200 15 348 0.0 9.7 0.00 1.60 1.12 55 1012.5
20260506230002 15 348 1.6 9.7 0.00 1.60 1.12 56 1012.6
20260506225900 15 360 4.8 9.7 0.00 1.60 1.12 56 1012.7
20260506225800 15 5 1.6 9.7 0.00 1.60 1.12 56 1012.6
20260506225659 15 17 0.0 9.7 0.00 1.60 1.12 55 1012.7
20260506225601 15 348 4.8 9.7 0.00 1.60 1.12 55 1012.7
20260506225501 15 26 6.4 6.4 0.00 1.60 1.12 56 1012.8
20260506225359 15 355 1.6 4.8 0.00 1.60 1.12 57 1012.8
20260506225300 15 355 1.6 14.5 0.00 1.60 1.12 56 1012.9
20260506225200 15 348 0.0 14.5 0.00 1.60 1.12 57 1012.8
20260506225100 15 333 0.0 14.5 0.00 1.60 1.12 56 1012.9
20260506224959 15 333 0.0 14.5 0.00 1.60 1.12 57 1012.9
20260506224900 15 330 1.6 14.5 0.00 1.60 1.12 57 1012.8
20260506224801 15 5 0.0 14.5 0.00 1.60 1.12 56 1012.8
20260506224700 15 5 0.0 14.5 0.00 1.60 1.12 57 1012.9
20260506224501 15 57 0.0 14.5 0.00 1.60 1.12 55 1012.9
20260506224401 15 340 6.4 14.5 0.00 1.60 1.12 55 1013.0
20260506224159 15 355 3.2 9.7 0.00 1.60 1.12 57 1012.9
20260506224001 15 341 4.8 9.7 0.00 1.60 1.12 54 1012.9
20260506223901 15 344 4.8 11.3 0.00 1.60 1.12 55 1012.8
20260506223759 15 347 1.6 6.4 0.00 1.60 1.12 55 1012.8
20260506223700 15 346 1.6 6.4 0.00 1.60 1.12 56 1012.8
20260506223500 15 332 0.0 3.2 0.00 1.60 1.12 55 1012.9
20260506223400 15 333 0.0 3.2 0.00 1.60 1.12 56 1012.9
20260506223303 15 333 0.0 14.5 0.00 1.60 1.12 57 1012.9
20260506223201 15 355 0.0 14.5 0.00 1.60 1.12 56 1013.0
20260506223100 15 360 1.6 14.5 0.00 1.60 1.12 56 1012.9
20260506223000 15 355 0.0 14.5 0.00 1.60 1.12 56 1013.0
20260506222858 15 355 1.6 14.5 0.00 1.60 1.12 56 1013.0
20260506222801 15 355 1.6 14.5 0.00 1.60 1.12 55 1013.1
20260506222600 15 351 1.6 14.5 0.00 1.60 1.12 55 1013.1
20260506222459 15 343 1.6 14.5 0.00 1.60 1.12 55 1013.1
20260506222400 15 13 8.0 14.5 0.00 1.60 1.12 56 1013.2
20260506222159 15 19 3.2 6.4 0.00 1.60 1.12 54 1013.2
20260506222100 15 5 4.8 6.4 0.00 1.60 1.12 54 1013.2
20260506222000 15 5 1.6 8.0 0.00 1.60 1.12 54 1013.3
20260506221900 15 25 3.2 8.0 0.00 1.60 1.12 55 1013.2
20260506221759 15 355 0.0 8.0 0.00 1.60 1.12 55 1013.1
20260506221701 15 355 1.6 8.0 0.00 1.60 1.12 56 1013.2
20260506221459 15 17 0.0 8.0 0.00 1.60 1.12 54 1013.2
20260506221359 15 15 0.0 8.0 0.00 1.60 1.12 54 1013.2
20260506221301 15 15 0.0 8.0 0.00 1.60 1.12 54 1013.2
20260506221201 15 360 1.6 8.0 0.00 1.60 1.12 53 1013.2
20260506221101 15 355 4.8 8.0 0.00 1.60 1.12 55 1013.2
20260506221001 15 346 1.6 8.0 0.00 1.60 1.12 54 1013.2
20260506220900 15 345 0.0 8.0 0.00 1.60 1.12 54 1013.2
20260506220659 15 345 0.0 8.0 0.00 1.60 1.12 55 1013.2
20260506220559 15 5 3.2 8.0 0.00 1.60 1.12 53 1013.1
20260506220459 15 360 4.8 8.0 0.00 1.60 1.12 54 1013.2
20260506220400 15 342 4.8 8.0 0.00 1.60 1.12 55 1013.2
20260506220259 15 30 3.2 8.0 0.00 1.60 1.12 55 1013.3
20260506220059 15 331 1.6 3.2 0.00 1.60 1.12 56 1013.4
20260506215959 15 331 0.0 3.2 0.00 1.70 1.12 55 1013.4
20260506215900 15 331 0.0 3.2 0.00 1.70 1.12 55 1013.3
20260506215759 15 318 0.0 3.2 0.00 1.70 1.12 54 1013.3
20260506215700 15 318 1.6 3.2 0.00 1.70 1.12 53 1013.3
20260506215601 15 318 0.0 3.2 0.00 1.70 1.12 53 1013.3
20260506215400 15 336 0.0 4.8 0.00 1.70 1.12 54 1013.3
20260506215300 15 335 0.0 4.8 0.00 1.70 1.12 53 1013.4
20260506215159 15 335 1.6 4.8 0.00 1.70 1.12 53 1013.3
20260506215059 15 332 0.0 4.8 0.00 1.70 1.12 54 1013.3
20260506215000 15 332 0.0 4.8 0.00 1.70 1.12 53 1013.2
20260506214801 15 342 0.0 4.8 0.00 1.70 1.12 54 1013.3
20260506214659 15 349 0.0 4.8 0.00 1.70 1.12 54 1013.4
20260506214600 15 333 1.6 4.8 0.00 1.70 1.12 53 1013.4
20260506214459 15 348 0.0 3.2 0.00 1.70 1.12 55 1013.4
20260506214359 15 348 0.0 3.2 0.00 1.70 1.12 55 1013.4
20260506214301 15 350 0.0 3.2 0.00 1.70 1.12 55 1013.3
20260506214159 15 355 0.0 3.2 0.00 1.70 1.12 54 1013.3
20260506214100 15 355 0.0 3.2 0.00 1.70 1.12 54 1013.3
20260506213959 15 355 0.0 3.2 0.00 1.70 1.12 53 1013.3
20260506213901 15 355 0.0 4.8 0.00 1.70 1.12 54 1013.3
20260506213759 15 355 0.0 6.4 0.00 1.70 1.12 55 1013.4
20260506213700 15 355 0.0 8.0 0.00 1.70 1.12 54 1013.4
20260506213559 15 332 0.0 8.0 0.00 1.70 1.12 54 1013.3
20260506213500 15 5 1.6 8.0 0.00 1.70 1.12 53 1013.3
20260506213159 15 9 0.0 8.0 0.00 1.70 1.12 54 1013.2
20260506213059 15 9 0.0 8.0 0.00 1.70 1.12 53 1013.2
20260506213000 15 21 4.8 8.0 0.00 1.70 1.12 53 1013.2
20260506212800 15 5 0.0 3.2 0.00 1.70 1.12 53 1013.2
20260506212459 15 244 0.0 8.0 0.00 1.70 1.12 55 1013.1
20260506212359 15 238 0.0 8.0 0.00 1.70 1.12 53 1013.1
20260506212300 15 238 0.0 8.0 0.00 1.70 1.12 54 1013.2
20260506212159 15 223 0.0 8.0 0.00 1.70 1.12 54 1013.2
20260506212100 15 9 0.0 8.0 0.00 1.70 1.12 53 1013.2
20260506211959 15 9 0.0 8.0 0.00 1.70 1.12 53 1013.2
20260506211859 15 343 0.0 8.0 0.00 1.70 1.12 53 1013.2
20260506211759 15 344 4.8 6.4 0.00 1.70 1.12 53 1013.1
20260506211659 15 349 0.0 6.4 0.00 1.70 1.12 53 1013.2
20260506211600 15 55 0.0 6.4 0.00 1.70 1.12 53 1013.1
20260506211502 15 342 0.0 6.4 0.00 1.70 1.12 51 1013.2
20260506211400 15 340 0.0 6.4 0.00 1.70 1.12 53 1013.1
20260506211300 15 278 3.2 6.4 0.00 1.70 1.12 52 1013.1
20260506211201 15 294 1.6 6.4 0.00 1.70 1.12 53 1013.0
20260506211059 15 281 0.0 6.4 0.00 1.70 1.12 51 1013.1
20260506211000 15 321 0.0 6.4 0.00 1.70 1.12 50 1013.1
20260506210859 15 355 4.8 6.4 0.00 1.70 1.12 51 1013.1
20260506210800 15 344 0.0 4.8 0.00 1.70 1.12 52 1013.1
20260506210659 15 328 0.0 4.8 0.00 1.70 1.12 53 1013.1
20260506210559 15 327 1.6 4.8 0.00 1.70 1.12 52 1013.0
20260506210500 15 322 1.6 6.4 0.00 1.70 1.12 51 1013.0
20260506210400 15 346 0.0 6.4 0.00 1.70 1.12 52 1013.0
20260506210100 15 67 1.6 8.0 0.00 1.70 1.12 52 1013.0
20260506210003 15 26 1.6 8.0 0.00 1.70 1.12 52 1013.0
20260506205902 15 24 1.6 8.0 0.00 1.85 1.12 52 1012.8
20260506205803 15 86 1.6 8.0 0.00 1.85 1.12 52 1012.8
20260506205700 16 348 0.0 8.0 0.00 1.85 1.12 51 1012.8
20260506205601 16 48 3.2 8.0 0.00 1.85 1.12 52 1012.8
20260506205501 16 5 3.2 8.0 0.00 1.85 1.12 51 1012.8
20260506205300 16 329 3.2 9.7 0.00 1.85 1.12 51 1013.0
20260506205200 16 338 0.0 9.7 0.00 1.85 1.12 51 1012.9
20260506205100 16 99 3.2 9.7 0.00 1.85 1.12 52 1012.9
20260506205003 16 355 0.0 9.7 0.00 1.85 1.12 52 1012.8
20260506204901 16 340 4.8 9.7 0.00 1.85 1.12 53 1012.8
20260506204701 16 348 3.2 9.7 0.00 1.85 1.12 53 1012.8
20260506204601 16 331 3.2 9.7 0.00 1.85 1.12 53 1012.8
20260506204502 16 348 0.0 6.4 0.00 1.85 1.12 51 1012.8
20260506204400 16 350 3.2 6.4 0.00 1.85 1.12 51 1012.8
20260506204303 16 355 1.6 6.4 0.00 1.85 1.12 51 1012.8
20260506204202 16 340 0.0 6.4 0.00 1.85 1.12 53 1012.8
20260506204101 16 348 0.0 6.4 0.00 1.85 1.12 52 1012.8
20260506204001 16 344 3.2 6.4 0.00 1.85 1.12 54 1012.8
20260506203900 16 327 3.2 6.4 0.00 1.85 1.12 54 1012.9
20260506203800 16 22 3.2 6.4 0.00 1.85 1.12 53 1012.9
20260506203600 16 355 3.2 4.8 0.00 1.85 1.12 52 1012.8
20260506203500 16 333 0.0 4.8 0.00 1.85 1.12 56 1012.8
20260506203401 16 324 0.0 4.8 0.00 1.85 1.12 56 1012.8
20260506203300 16 324 0.0 6.4 0.00 1.85 1.12 53 1012.7
20260506203200 16 306 0.0 6.4 0.00 1.85 1.12 55 1012.7
20260506203101 16 306 0.0 6.4 0.00 1.85 1.12 54 1012.7
20260506203001 15 306 0.0 6.4 0.00 1.85 1.12 53 1012.7
20260506202900 15 300 1.6 6.4 0.00 1.85 1.12 55 1012.9
20260506202701 15 335 1.6 6.4 0.00 1.85 1.12 54 1012.9
20260506202601 15 344 0.0 6.4 0.00 1.85 1.12 54 1012.9
20260506202502 15 344 0.0 6.4 0.00 1.85 1.12 54 1012.9
20260506202401 15 346 1.6 4.8 0.00 1.85 1.12 55 1012.9
20260506202306 15 71 1.6 4.8 0.00 1.85 1.12 56 1012.9
20260506202203 15 73 1.6 4.8 0.00 1.85 1.12 57 1013.0
20260506202101 15 346 1.6 4.8 0.00 1.85 1.12 57 1013.0
20260506202002 15 325 4.8 4.8 0.00 1.85 1.12 56 1013.0
20260506201701 15 5 0.0 6.4 0.00 1.85 1.12 55 1013.1
20260506201501 15 19 1.6 6.4 0.00 1.85 1.12 56 1013.1
20260506201402 15 343 1.6 6.4 0.00 1.85 1.12 57 1013.0
20260506201300 15 58 0.0 6.4 0.00 1.85 1.12 56 1013.0
20260506201203 15 31 4.8 6.4 0.00 1.85 1.12 56 1013.0
20260506201105 15 333 1.6 6.4 0.00 1.85 1.12 55 1013.0
20260506200900 15 5 0.0 6.4 0.00 1.85 1.12 55 1013.1
20260506200800 15 316 0.0 6.4 0.00 1.85 1.12 57 1013.1
20260506200702 15 34 3.2 6.4 0.00 1.85 1.12 56 1013.1
20260506200600 15 349 1.6 6.4 0.00 1.85 1.12 57 1013.0
20260506200504 15 139 0.0 6.4 0.00 1.85 1.12 56 1013.0
20260506200402 15 139 0.0 6.4 0.00 1.85 1.12 56 1013.0
20260506200301 15 333 0.0 8.0 0.00 1.85 1.12 56 1013.0
20260506200202 15 333 3.2 8.0 0.00 1.85 1.12 56 1013.0
20260506200105 15 334 3.2 8.0 0.00 1.85 1.12 57 1013.0
20260506195900 15 325 4.8 8.0 0.00 2.16 1.12 56 1013.0
20260506195800 15 355 3.2 8.0 0.00 2.16 1.12 56 1013.0
20260506195700 15 333 3.2 8.0 0.00 2.16 1.12 56 1013.0
20260506195601 15 29 1.6 8.0 0.00 2.16 1.12 55 1013.0
20260506195400 15 16 4.8 9.7 0.00 2.16 1.12 56 1013.0
20260506195159 15 350 1.6 9.7 0.00 2.16 1.12 57 1013.0
20260506195059 15 360 0.0 9.7 0.00 2.16 1.12 57 1012.9
20260506194959 15 355 0.0 9.7 0.00 2.16 1.12 56 1013.0
20260506194901 15 351 0.0 9.7 0.00 2.16 1.12 55 1013.1
20260506194759 15 15 1.6 9.7 0.00 2.16 1.12 56 1013.0
20260506194659 15 19 1.6 9.7 0.00 2.16 1.12 55 1013.0
20260506194601 15 5 8.0 14.5 0.00 2.16 1.12 55 1013.1
20260506194400 15 108 1.6 14.5 0.00 2.16 1.12 56 1013.0
20260506194259 16 355 1.6 14.5 0.00 2.16 1.12 56 1012.9
20260506194201 16 339 3.2 14.5 0.00 2.16 1.12 56 1013.0
20260506194059 16 326 8.0 14.5 0.00 2.16 1.12 56 1012.9
20260506194000 16 331 0.0 14.5 0.00 2.16 1.12 57 1012.9
20260506193701 16 18 4.8 8.0 0.00 2.16 1.12 54 1012.9
20260506193601 16 360 0.0 8.0 0.00 2.16 1.12 55 1012.9
20260506193500 16 9 4.8 8.0 0.00 2.16 1.12 55 1012.9
20260506193359 16 344 3.2 8.0 0.00 2.16 1.12 56 1012.9
20260506193300 16 336 8.0 8.0 0.00 2.16 1.12 55 1012.8
20260506193203 16 18 1.6 6.4 0.00 2.16 1.12 53 1012.8
20260506193100 16 35 1.6 9.7 0.00 2.16 1.12 54 1012.9
20260506192900 16 355 0.0 14.5 0.00 2.16 1.12 55 1012.7
20260506192701 16 13 0.0 14.5 0.00 2.16 1.12 54 1012.7
20260506192601 16 223 0.0 14.5 0.00 2.16 1.12 53 1012.8
20260506192501 16 348 1.6 14.5 0.00 2.16 1.12 54 1012.8
20260506192401 16 348 3.2 14.5 0.00 2.16 1.12 54 1012.6
20260506192301 16 319 6.4 14.5 0.00 2.16 1.12 53 1012.6
20260506192101 16 5 4.8 14.5 0.00 2.16 1.12 54 1012.5
20260506192000 16 32 1.6 9.7 0.00 2.16 1.12 53 1012.5
20260506191902 16 348 1.6 9.7 0.00 2.16 1.12 54 1012.5
20260506191702 16 9 0.0 8.0 0.00 2.16 1.12 54 1012.4
20260506191503 16 360 0.0 8.0 0.00 2.16 1.12 53 1012.4
20260506191300 16 355 3.2 8.0 0.00 2.16 1.12 53 1012.4
20260506191201 16 348 1.6 6.4 0.00 2.16 1.12 52 1012.4
20260506191101 16 348 6.4 6.4 0.00 2.16 1.12 53 1012.4
20260506191002 16 341 1.6 6.4 0.00 2.16 1.12 52 1012.4
20260506190900 16 355 1.6 6.4 0.00 2.16 1.12 49 1012.3
20260506190701 16 360 6.4 6.4 0.00 2.16 1.12 52 1012.3
20260506190602 16 335 0.0 6.4 0.00 2.16 1.12 53 1012.4
20260506190500 16 360 0.0 6.4 0.00 2.16 1.12 50 1012.4
20260506190400 16 324 0.0 6.4 0.00 2.16 1.12 49 1012.4
20260506190300 16 5 1.6 6.4 0.00 2.16 1.12 53 1012.4
20260506190203 16 348 3.2 6.4 0.00 2.16 1.12 52 1012.4
20260506190100 16 329 0.0 6.4 0.00 2.16 1.12 50 1012.4
20260506190004 16 311 0.0 6.4 0.00 2.16 1.12 49 1012.3
20260506185900 16 315 0.0 6.4 0.00 2.16 1.12 51 1012.3
20260506185800 16 348 0.0 9.7 0.00 2.16 1.12 53 1012.4
20260506185600 16 21 0.0 14.5 0.00 2.16 1.12 50 1012.4
20260506185459 16 5 0.0 14.5 0.00 2.16 1.12 50 1012.5
20260506185400 16 5 6.4 14.5 0.00 2.16 1.12 53 1012.5
20260506185300 16 348 0.0 14.5 0.00 2.16 1.12 53 1012.5
20260506185159 16 350 0.0 14.5 0.00 2.16 1.12 53 1012.4
20260506185100 16 349 1.6 14.5 0.00 2.16 1.12 54 1012.3
20260506184959 16 360 3.2 14.5 0.00 2.16 1.12 53 1012.3
20260506184859 16 355 3.2 14.5 0.00 2.16 1.12 50 1012.3
20260506184801 16 23 6.4 6.4 0.00 2.16 1.12 52 1012.4
20260506184701 16 55 4.8 9.7 0.00 2.16 1.12 51 1012.3
20260506184559 16 329 0.0 9.7 0.00 2.16 1.12 51 1012.3
20260506184400 16 328 3.2 14.5 0.00 2.16 1.12 54 1012.3
20260506184259 16 327 0.0 14.5 0.00 2.16 1.12 53 1012.4
20260506184200 16 349 1.6 14.5 0.00 2.16 1.12 54 1012.5
20260506184101 16 348 1.6 14.5 0.00 2.16 1.12 51 1012.4
20260506184000 16 5 1.6 14.5 0.00 2.16 1.12 52 1012.5
20260506183900 16 33 4.8 14.5 0.00 2.16 1.12 51 1012.4
20260506183759 17 34 1.6 14.5 0.00 2.16 1.12 50 1012.5
20260506183659 17 15 6.4 14.5 0.00 2.16 1.12 53 1012.5
20260506183600 17 347 3.2 14.5 0.00 2.16 1.12 53 1012.4
20260506183459 17 5 8.0 8.0 0.00 2.16 1.12 54 1012.4
20260506183400 17 338 0.0 6.4 0.00 2.16 1.12 55 1012.4
20260506183302 17 338 3.2 6.4 0.00 2.16 1.12 56 1012.4
20260506183201 16 5 0.0 6.4 0.00 2.16 1.12 55 1012.4
20260506183000 16 259 0.0 6.4 0.00 2.16 1.12 52 1012.3
20260506182900 16 263 0.0 6.4 0.00 2.16 1.12 53 1012.4
20260506182801 16 350 0.0 6.4 0.00 2.16 1.12 54 1012.4
20260506182600 16 348 0.0 6.4 0.00 2.16 1.12 55 1012.4
20260506182459 16 14 0.0 6.4 0.00 2.16 1.12 56 1012.4
20260506182402 16 33 4.8 6.4 0.00 2.16 1.12 55 1012.4
20260506182301 16 321 3.2 6.4 0.00 2.16 1.12 60 1012.4
20260506182200 16 360 3.2 6.4 0.00 2.16 1.12 55 1012.4
20260506182100 16 42 4.8 6.4 0.00 2.16 1.12 55 1012.3
20260506182000 16 75 1.6 6.4 0.00 2.16 1.12 55 1012.4
20260506181900 16 17 3.2 6.4 0.00 2.16 1.12 56 1012.4
20260506181802 16 36 1.6 8.0 0.00 2.16 1.12 55 1012.4
20260506181600 16 35 3.2 8.0 0.00 2.16 1.12 55 1012.4
20260506181401 16 313 4.8 8.0 0.00 2.16 1.12 58 1012.5
20260506181300 16 327 6.4 8.0 0.00 2.16 1.12 56 1012.5
20260506181200 16 245 1.6 8.0 0.00 2.16 1.12 56 1012.4
20260506181100 16 355 1.6 8.0 0.00 2.16 1.12 59 1012.5
20260506180959 16 312 1.6 8.0 0.00 2.16 1.12 58 1012.4
20260506180859 16 319 8.0 8.0 0.00 2.16 1.12 59 1012.4
20260506180800 16 325 0.0 6.4 0.00 2.16 1.12 56 1012.4
20260506180600 16 169 1.6 6.4 0.00 2.16 1.12 53 1012.4
20260506180400 16 304 1.6 6.4 0.00 2.16 1.12 58 1012.5
20260506180300 16 340 3.2 6.4 0.00 2.16 1.12 56 1012.6
20260506180159 16 5 0.0 6.4 0.00 2.16 1.12 50 1012.6
20260506180100 16 9 0.0 6.4 0.00 2.16 1.12 50 1012.6
20260506180000 16 5 3.2 6.4 0.00 2.16 1.12 55 1012.6
20260506175902 16 59 3.2 6.4 0.00 2.16 1.12 53 1012.6
20260506175800 16 20 0.0 4.8 0.00 2.16 1.12 54 1012.7
20260506175701 16 344 3.2 4.8 0.00 2.16 1.12 55 1012.7
20260506175500 15 20 1.6 4.8 0.00 2.16 1.12 54 1012.7
20260506175200 15 40 3.2 4.8 0.00 2.16 1.12 60 1012.8
20260506175100 15 20 0.0 8.0 0.00 2.16 1.12 59 1012.7
20260506175000 15 211 0.0 8.0 0.00 2.16 1.12 56 1012.7
20260506174800 15 213 0.0 9.7 0.00 2.16 1.12 57 1012.6
20260506174700 15 213 3.2 12.9 0.00 2.16 1.12 55 1012.7
20260506174601 15 15 1.6 12.9 0.00 2.16 1.12 55 1012.8
20260506174459 15 28 1.6 12.9 0.00 2.16 1.12 57 1012.8
20260506174359 15 98 1.6 12.9 0.00 2.16 1.12 57 1012.8
20260506174300 15 30 0.0 12.9 0.00 2.16 1.12 55 1012.8
20260506174159 15 33 6.4 12.9 0.00 2.16 1.12 57 1012.8
20260506174059 15 330 3.2 12.9 0.00 2.16 1.12 58 1012.9
20260506174000 15 17 4.8 12.9 0.00 2.16 1.12 57 1012.8
20260506173901 15 328 9.7 11.3 0.00 2.16 1.12 55 1013.0
20260506173759 15 336 3.2 8.0 0.00 2.16 1.12 56 1013.0
20260506173700 15 11 6.4 8.0 0.00 2.16 1.12 56 1013.0
20260506173559 15 50 3.2 9.7 0.00 2.16 1.12 57 1013.0
20260506173501 15 77 3.2 6.4 0.00 2.16 1.12 55 1013.0
20260506173202 15 346 6.4 9.7 0.00 2.16 1.12 58 1013.0
20260506173059 15 350 4.8 9.7 0.00 2.16 1.12 57 1012.9
20260506172959 15 195 0.0 9.7 0.00 2.16 1.12 55 1013.0
20260506172859 15 340 1.6 9.7 0.00 2.16 1.12 54 1012.9
20260506172759 15 311 0.0 9.7 0.00 2.16 1.12 54 1012.9
20260506172701 15 355 0.0 9.7 0.00 2.16 1.12 56 1012.8
20260506172600 15 319 3.2 9.7 0.00 2.16 1.12 57 1013.0
20260506172459 15 36 4.8 9.7 0.00 2.16 1.12 59 1012.8
20260506172400 15 360 3.2 6.4 0.00 2.16 1.12 57 1013.0
20260506172159 15 85 1.6 4.8 0.00 2.16 1.12 59 1012.8
20260506172100 15 30 1.6 6.4 0.00 2.16 1.12 57 1012.8
20260506172000 15 17 0.0 14.5 0.00 2.16 1.12 57 1012.8
20260506171859 15 21 0.0 14.5 0.00 2.16 1.12 56 1012.9
20260506171759 15 26 0.0 14.5 0.00 2.16 1.12 60 1012.8
20260506171659 15 5 0.0 14.5 0.00 2.16 1.12 58 1012.9
20260506171600 15 5 0.0 14.5 0.00 2.16 1.12 59 1013.0
20260506171459 15 12 0.0 14.5 0.00 2.16 1.12 59 1013.0
20260506171259 15 22 3.2 14.5 0.00 2.16 1.12 58 1013.0
20260506171159 15 5 6.4 14.5 0.00 2.16 1.12 56 1013.1
20260506171100 15 9 6.4 14.5 0.00 2.16 1.12 54 1013.1
20260506171001 15 34 6.4 14.5 0.00 2.16 1.12 57 1013.1
20260506170859 15 329 4.8 8.0 0.00 2.16 1.12 57 1013.2
20260506170759 15 340 1.6 8.0 0.00 2.16 1.12 57 1013.1
20260506170700 15 348 1.6 8.0 0.00 2.16 1.12 55 1013.1
20260506170601 15 22 4.8 8.0 0.00 2.16 1.12 56 1013.1
20260506170500 15 360 4.8 8.0 0.00 2.16 1.12 60 1013.2
20260506170400 15 355 1.6 8.0 0.00 2.16 1.12 60 1013.2
20260506170200 15 343 4.8 8.0 0.00 2.16 1.12 58 1013.1
20260506170059 15 164 1.6 8.0 0.00 2.16 1.12 59 1013.1
20260506170004 15 317 1.6 8.0 0.00 2.16 1.12 60 1013.3
20260506165902 15 317 0.0 8.0 0.00 2.16 1.12 60 1013.2
20260506165800 15 335 1.6 9.7 0.00 2.16 1.12 59 1013.2
20260506165700 15 331 0.0 9.7 0.00 2.16 1.12 59 1013.2
20260506165600 15 333 1.6 9.7 0.00 2.16 1.12 59 1013.2
20260506165500 15 5 6.4 9.7 0.00 2.16 1.12 59 1013.2
20260506165259 14 5 4.8 9.7 0.00 2.16 1.12 60 1013.2
20260506165101 14 32 3.2 9.7 0.00 2.16 1.12 62 1013.2
20260506165000 14 342 9.7 11.3 0.00 2.16 1.12 62 1013.1
20260506164859 14 350 4.8 14.5 0.00 2.16 1.12 61 1013.1
20260506164759 14 320 1.6 14.5 0.00 2.16 1.12 61 1013.1
20260506164659 14 360 4.8 14.5 0.00 2.16 1.12 60 1013.2
20260506164601 14 306 1.6 14.5 0.00 2.16 1.12 64 1013.2
20260506164500 14 38 1.6 14.5 0.00 2.16 1.12 62 1013.2
20260506164359 14 38 1.6 14.5 0.00 2.16 1.12 60 1013.3
20260506164301 13 38 1.6 16.1 0.00 2.16 1.12 60 1013.3
20260506164159 13 343 6.4 16.1 0.00 2.16 1.12 60 1013.3
20260506164059 13 351 9.7 16.1 0.00 2.16 1.12 55 1013.3
20260506163959 13 5 14.5 16.1 0.00 2.16 1.12 54 1013.3
20260506163900 13 341 3.2 16.1 0.00 2.16 1.12 57 1013.2
20260506163800 13 330 3.2 16.1 0.00 2.16 1.12 55 1013.3
20260506163701 13 330 4.8 16.1 0.00 2.16 1.12 54 1013.3
20260506163459 13 41 0.0 16.1 0.00 2.16 1.12 53 1013.4
20260506163400 13 42 6.4 17.7 0.00 2.16 1.12 53 1013.4
20260506163259 13 21 4.8 17.7 0.00 2.16 1.12 52 1013.4
20260506163200 13 32 3.2 17.7 0.00 2.16 1.12 54 1013.3
20260506163001 13 103 3.2 17.7 0.00 2.16 1.12 55 1013.2
20260506162900 13 50 1.6 17.7 0.00 2.16 1.12 59 1013.2
20260506162800 13 344 4.8 17.7 0.00 2.16 1.12 58 1013.1
20260506162701 13 337 3.2 17.7 0.00 2.16 1.12 59 1013.1
20260506162559 13 40 6.4 17.7 0.00 2.16 1.12 56 1013.1
20260506162500 13 34 16.1 17.7 0.00 2.16 1.12 60 1013.0
20260506162400 13 330 4.8 6.4 0.00 2.16 1.12 62 1013.1
20260506162259 13 22 1.6 8.0 0.00 2.16 1.12 60 1013.1
20260506162200 13 5 0.0 9.7 0.00 2.16 1.12 61 1013.1
20260506162100 13 355 1.6 14.5 0.00 2.16 1.12 64 1013.1
20260506162001 13 344 4.8 14.5 0.00 2.16 1.12 62 1013.1
20260506161859 13 329 1.6 14.5 0.00 2.16 1.12 59 1013.0
20260506161659 13 28 4.8 14.5 0.00 2.16 1.12 59 1013.1
20260506161459 12 10 0.0 14.5 0.00 2.16 1.12 60 1013.1
20260506161400 12 15 8.0 14.5 0.00 2.16 1.12 59 1013.1
20260506161300 12 36 8.0 14.5 0.00 2.16 1.12 60 1013.1
20260506161101 12 360 0.0 14.5 0.00 2.16 1.12 60 1013.2
20260506160959 12 5 3.2 14.5 0.00 2.16 1.12 60 1013.2
20260506160859 12 341 3.2 9.7 0.00 2.16 1.12 61 1013.2
20260506160659 12 11 4.8 9.7 0.00 2.16 1.12 63 1013.3
20260506160600 12 5 1.6 9.7 0.00 2.16 1.12 61 1013.3
20260506160459 12 346 3.2 9.7 0.00 2.16 1.12 60 1013.2
20260506160401 12 5 1.6 9.7 0.00 2.16 1.12 59 1013.3
20260506160259 12 15 3.2 9.7 0.00 2.16 1.12 60 1013.3
20260506160201 12 360 6.4 9.7 0.00 2.16 1.12 61 1013.3
20260506160100 12 344 1.6 8.0 0.00 2.16 1.12 61 1013.3
20260506160001 12 346 1.6 8.0 0.00 2.16 1.12 61 1013.4
20260506155859 12 338 3.2 9.7 0.00 2.16 1.12 62 1013.2
20260506155801 12 19 4.8 9.7 0.00 2.16 1.12 62 1013.1
20260506155701 12 5 4.8 9.7 0.00 2.16 1.12 62 1013.1
20260506155600 12 327 0.0 9.7 0.00 2.16 1.12 62 1013.1
20260506155401 12 351 4.8 9.7 0.00 2.16 1.12 61 1013.1
20260506155259 12 18 1.6 14.5 0.00 2.16 1.12 62 1013.0
20260506155159 12 40 1.6 14.5 0.00 2.16 1.12 62 1013.0
20260506155100 12 9 1.6 14.5 0.00 2.16 1.12 62 1013.0
20260506155000 12 355 8.0 17.7 0.00 2.16 1.12 62 1013.0
20260506154900 12 332 4.8 17.7 0.00 2.16 1.12 61 1013.0
20260506154759 12 51 6.4 17.7 0.00 2.16 1.12 60 1012.9
20260506154659 12 355 3.2 17.7 0.00 2.16 1.12 60 1013.0
20260506154600 12 32 8.0 17.7 0.00 2.16 1.12 61 1013.0
20260506154400 12 16 8.0 17.7 0.00 2.16 1.12 62 1013.0
20260506154259 12 29 8.0 17.7 0.00 2.16 1.12 63 1013.0
20260506154200 12 355 8.0 17.7 0.00 2.16 1.12 63 1012.9
20260506154100 12 22 12.9 14.5 0.00 2.16 1.12 64 1013.0
20260506153959 12 360 1.6 9.7 0.00 2.16 1.12 64 1012.9
20260506153859 12 355 6.4 9.7 0.00 2.16 1.12 65 1012.9
20260506153801 12 304 6.4 9.7 0.00 2.16 1.12 62 1012.8
20260506153659 12 26 3.2 9.7 0.00 2.16 1.12 63 1012.8
20260506153600 12 323 0.0 9.7 0.00 2.16 1.12 61 1012.7
20260506153501 12 30 4.8 9.7 0.00 2.16 1.12 62 1012.7
20260506153302 12 44 3.2 9.7 0.00 2.16 1.12 64 1012.7
20260506153200 12 313 3.2 9.7 0.00 2.16 1.12 64 1012.8
20260506153101 12 42 4.8 12.9 0.00 2.16 1.12 63 1012.8
20260506152959 11 125 1.6 12.9 0.00 2.16 1.12 64 1012.9
20260506152902 11 42 1.6 12.9 0.00 2.16 1.12 62 1012.8
20260506152800 12 315 3.2 12.9 0.00 2.16 1.12 62 1012.9
20260506152659 12 44 6.4 12.9 0.00 2.16 1.12 64 1012.9
20260506152601 11 42 1.6 12.9 0.00 2.16 1.12 65 1012.8
20260506152500 11 336 4.8 12.9 0.00 2.16 1.12 65 1012.8
20260506152159 11 329 9.7 12.9 0.00 2.16 1.12 66 1013.0
20260506152100 11 345 1.6 12.9 0.00 2.16 1.12 66 1013.1
20260506152003 11 321 3.2 12.9 0.00 2.16 1.12 65 1013.1
20260506151901 11 355 1.6 12.9 0.00 2.16 1.12 66 1013.2
20260506151759 11 339 3.2 12.9 0.00 2.16 1.12 66 1013.2
20260506151702 11 344 3.2 12.9 0.00 2.16 1.12 66 1013.2
20260506151559 11 349 0.0 12.9 0.00 2.16 1.12 64 1013.3
20260506151501 11 17 6.4 12.9 0.00 2.16 1.12 63 1013.2
20260506151359 11 30 8.0 12.9 0.00 2.16 1.12 65 1013.3
20260506151202 11 335 4.8 9.7 0.00 2.16 1.12 65 1013.3
20260506151101 11 11 3.2 9.7 0.00 2.16 1.12 68 1013.2
20260506151000 11 22 3.2 9.7 0.00 2.16 1.12 67 1013.1
20260506150900 11 343 8.0 9.7 0.00 2.16 1.12 69 1013.0
20260506150659 11 350 3.2 8.0 0.00 2.16 1.12 68 1012.9
20260506150601 11 355 1.6 8.0 0.00 2.16 1.12 68 1012.9
20260506150501 11 355 1.6 8.0 0.00 2.16 1.12 67 1012.8
20260506150400 11 343 3.2 8.0 0.00 2.16 1.12 66 1012.8
20260506150304 11 347 4.8 8.0 0.00 2.16 1.12 66 1012.8
20260506150100 11 342 1.6 6.4 0.00 2.16 1.12 69 1012.6
20260506150001 11 320 3.2 6.4 0.00 2.16 1.12 68 1012.6
20260506145859 11 355 0.0 9.7 0.00 2.16 1.12 68 1012.4
20260506145800 11 355 1.6 9.7 0.00 2.16 1.12 68 1012.4
20260506145500 11 5 1.6 9.7 0.00 2.16 1.12 69 1012.5